GEFSSGP_500_meanwind_138.txt.gz
Wind_Speed
16 15 14 13 13 13 13 13 12 10 9 10 12 13 13 12 12 11 9 8 7 8 7 7 6 6 6 6 6 7 7 8 8 8 8 9 9 9 9 9 9 9 9 9 8 8 8 7 6
17 16 15 14 14 14 15 14 14 13 11 12 14 14 15 15 14 13 12 11 10 9 8 8 8 7 7 7 7 8 8 9 9 9 9 10 10 10 10 10 10 10 10 10 10 9 9 8 8
17 17 16 15 15 16 16 15 15 13 13 15 16 16 16 16 16 16 15 14 12 11 10 10 9 9 8 8 8 9 9 9 10 10 10 11 11 12 11 11 11 12 11 11 10 10 10 10 9
18 17 17 17 17 18 18 18 16 15 16 17 18 18 17 16 17 16 16 15 14 12 11 11 11 10 10 10 10 10 10 11 11 11 12 12 12 13 13 13 13 13 13 12 12 11 11 11 10
18 18 17 17 18 19 19 19 18 17 18 19 19 18 18 17 16 16 16 16 14 12 12 12 12 11 11 11 12 12 12 12 12 13 13 13 13 14 14 14 14 14 14 14 14 13 13 12 12
18 18 18 18 19 21 22 20 19 18 18 20 20 20 19 18 17 16 16 15 13 12 12 12 12 13 13 13 13 13 14 14 14 14 14 14 15 15 15 15 16 16 16 16 16 15 15 14 13
18 18 18 20 21 23 23 22 20 19 19 21 22 22 20 20 18 16 15 14 14 13 12 12 13 14 14 14 15 15 15 15 15 15 16 16 16 17 17 17 17 17 17 17 17 17 16 16 15
18 17 18 21 23 24 23 22 20 20 21 23 24 23 22 20 20 19 15 14 14 14 12 13 13 14 15 15 16 16 16 17 17 17 16 17 17 18 18 19 18 18 19 19 19 18 18 17 17
17 18 20 24 25 25 23 20 21 22 24 24 25 24 22 21 20 18 17 15 15 13 12 13 15 15 16 16 17 17 17 18 18 18 17 17 17 18 19 19 20 20 20 20 20 20 19 19 18
18 20 23 25 26 24 21 19 21 23 24 25 24 24 22 20 20 17 18 17 16 14 12 13 14 15 17 17 17 18 18 18 18 18 18 18 19 19 20 21 21 21 20 20 21 20 19 19 20
19 21 24 25 24 23 20 20 21 22 23 22 22 23 22 20 20 19 17 17 15 14 14 13 13 15 16 17 17 18 18 18 18 18 19 19 19 20 20 20 21 22 21 21 21 21 21 21 21
21 23 25 24 23 22 21 21 21 21 21 22 22 22 22 22 22 22 22 20 17 15 14 14 13 14 16 16 16 18 19 18 19 19 20 21 21 21 21 21 22 22 22 23 23 21 21 21 21
22 23 24 24 22 22 21 22 22 22 21 21 21 20 20 20 20 21 19 18 16 15 15 15 14 15 16 17 17 18 18 20 20 21 20 22 22 23 22 22 22 23 23 23 23 23 23 23 23
22 22 23 23 22 22 21 21 21 21 21 21 20 20 19 18 17 18 18 17 16 15 16 16 16 15 16 17 17 17 18 19 20 20 22 22 22 23 23 23 23 24 24 23 23 23 24 24 23
21 21 20 20 20 20 20 21 21 20 20 19 18 18 18 17 17 17 17 17 17 16 16 16 15 16 17 17 18 18 19 20 21 21 22 23 23 23 24 25 25 24 24 24 25 25 25 25 24
19 18 16 15 16 16 18 18 17 17 17 16 16 16 15 15 14 16 15 14 15 16 16 16 17 16 17 18 18 19 21 21 22 23 23 24 24 24 24 24 25 25 25 26 26 25 25 26 26
17 15 14 13 13 12 13 13 14 14 13 13 14 14 14 14 14 15 15 15 16 16 16 17 18 17 17 19 19 20 22 23 23 23 24 25 24 24 24 25 25 25 25 26 27 26 25 26 27
15 14 12 11 11 11 10 10 11 11 12 12 13 14 15 15 14 15 16 17 16 16 16 17 18 18 19 20 21 22 23 24 25 25 26 27 26 26 26 26 27 27 26 26 27 27 28 28 28
13 12 11 10 11 13 12 12 11 11 12 13 14 15 15 15 15 15 15 16 17 17 17 18 18 19 20 21 22 22 23 25 26 26 27 27 27 28 28 28 29 28 28 28 28 28 28 29 28
12 11 11 11 12 13 13 14 14 15 16 16 15 14 13 13 14 14 15 15 16 17 18 19 19 20 21 22 22 23 24 25 26 27 27 28 29 29 28 29 29 29 29 29 30 29 29 29 29
12 11 10 11 11 13 15 16 16 16 17 18 15 13 12 13 13 14 14 15 17 18 19 20 20 21 22 22 23 24 25 25 26 27 27 28 29 29 29 29 29 29 29 29 30 30 30 30 30
13 13 11 11 12 13 15 15 15 15 17 17 16 14 12 13 14 14 15 17 18 18 19 20 21 22 22 23 23 24 25 26 26 27 27 27 28 29 29 29 29 29 29 29 29 29 30 30 30
14 15 15 15 15 15 16 17 17 18 19 19 19 17 14 13 14 14 15 17 17 18 19 20 21 22 23 24 24 25 26 26 26 27 27 27 28 28 29 29 28 28 29 29 28 29 29 29 29
15 15 16 17 18 18 17 20 19 19 20 20 19 16 14 14 14 15 16 17 18 20 20 21 22 23 24 25 25 26 27 27 28 28 27 27 27 27 27 27 27 28 28 28 28 28 29 29 29
14 15 16 17 18 17 17 20 19 19 19 18 16 16 16 15 14 15 16 17 18 20 21 22 23 23 25 25 26 27 27 27 28 28 27 27 27 26 26 26 27 27 28 28 28 29 29 29 29
13 14 14 15 16 15 16 17 16 16 16 15 16 16 16 15 15 16 16 18 18 20 21 22 24 25 25 26 27 27 27 27 27 27 27 27 27 27 26 27 27 27 28 28 28 28 28 28 28
12 13 13 15 15 15 16 16 15 14 15 16 16 16 16 15 15 16 17 19 19 21 22 23 24 25 26 26 26 27 27 27 28 28 28 28 28 28 28 27 28 28 28 28 28 28 28 28 28
12 12 14 14 15 16 15 15 15 15 14 14 15 15 16 16 15 16 18 19 21 22 22 23 24 25 26 26 26 27 27 28 28 28 28 28 28 27 27 27 27 27 26 27 27 27 27 28 28
13 13 14 15 16 16 16 15 15 16 15 15 16 17 17 17 17 18 19 20 22 23 23 23 24 25 26 26 26 27 28 28 28 28 27 27 27 26 26 26 26 25 25 26 26 26 27 27 27
14 15 15 16 17 17 18 17 16 16 17 17 17 18 19 19 19 19 20 22 22 23 24 24 25 26 26 26 27 27 27 26 26 26 26 26 26 26 25 25 25 25 25 25 25 26 26 26 27

GEFSSGP_500_meanwind_144.txt.gz
Wind_Speed
16 16 16 16 16 15 15 14 13 12 10 8 6 5 5 5 5 5 5 6 6 7 7 8 7 7 6 5 4 4 4 4 4 4 5 5 6 6 6 7 7 8 9 9 10 10 9 9 9
17 17 17 17 17 17 17 16 15 14 12 10 8 7 6 7 7 6 7 8 9 9 9 10 9 8 7 6 6 6 6 6 6 6 6 6 6 7 7 8 8 8 9 9 10 10 10 10 9
18 18 18 18 18 18 19 18 17 16 13 12 10 8 8 8 8 9 10 10 11 11 11 11 11 9 9 8 8 8 8 8 8 8 8 8 8 8 9 9 9 9 10 10 10 10 10 10 10
18 18 19 20 20 20 21 20 19 18 16 14 12 10 9 9 10 10 12 12 12 12 13 12 12 11 10 10 9 9 9 9 9 10 10 10 10 10 10 11 11 11 11 11 11 11 11 11 11
19 19 20 20 22 23 22 22 21 20 19 16 14 12 10 10 12 12 13 13 12 12 13 12 12 12 11 11 11 11 11 11 11 11 11 11 12 12 12 13 13 13 13 13 12 12 12 12 12
19 19 20 21 23 24 24 24 23 21 19 17 16 14 12 12 12 14 14 13 13 13 13 13 13 13 12 12 13 13 13 13 13 13 13 13 13 14 14 15 15 15 15 15 15 14 14 14 14
20 21 21 23 25 26 26 25 24 21 19 17 16 15 14 13 14 15 15 15 15 14 14 13 14 13 13 14 14 14 14 15 15 15 15 15 15 16 16 16 17 17 17 17 17 17 16 16 16
21 21 23 25 26 27 27 26 24 21 20 18 17 16 16 16 16 16 16 16 16 14 13 13 14 14 14 15 15 15 16 16 17 17 17 17 17 17 17 17 18 18 18 18 18 18 18 18 17
22 23 25 27 27 28 27 26 24 22 20 19 18 17 17 17 17 18 17 16 15 16 15 15 15 15 16 16 17 17 17 17 18 19 19 19 19 18 18 19 19 19 19 19 20 19 19 19 18
22 24 26 28 28 28 27 26 25 22 21 20 19 18 17 18 19 18 16 15 16 16 16 16 15 16 16 15 16 17 17 17 18 18 19 19 20 20 20 20 20 20 20 21 21 21 21 20 19
23 25 26 28 28 27 27 26 24 23 22 20 19 17 17 18 18 17 16 16 16 15 15 15 14 15 17 17 17 17 17 18 19 19 20 20 21 21 21 21 21 22 22 22 22 22 22 22 21
23 25 26 27 27 27 26 25 25 23 23 22 20 17 17 17 16 16 17 17 16 15 14 15 15 16 17 18 18 18 18 18 19 19 21 21 22 22 22 22 22 23 23 23 23 23 23 23 23
23 25 26 26 26 26 26 25 24 23 23 22 20 19 19 18 17 17 16 16 17 17 16 15 15 17 18 18 18 18 19 20 20 20 21 22 23 23 23 23 24 24 24 24 25 25 24 24 23
24 24 25 25 25 25 25 23 23 22 22 21 19 19 18 18 17 17 16 16 17 16 15 15 16 16 18 19 19 19 20 20 21 21 22 23 24 24 24 25 25 25 25 25 26 26 25 25 25
22 23 24 25 24 24 23 23 22 22 21 20 19 18 18 17 17 17 15 16 17 17 15 16 16 18 19 20 20 20 20 21 21 22 23 23 24 24 25 25 25 25 25 25 25 26 26 26 26
21 23 23 23 23 22 22 22 20 19 19 19 18 18 17 17 16 16 16 16 15 15 16 16 16 17 18 19 19 20 20 21 21 22 23 24 24 25 25 26 26 25 26 26 26 26 26 26 27
20 21 22 23 22 22 20 19 18 17 17 17 17 17 17 17 17 17 16 15 15 15 16 16 16 17 18 18 19 20 20 21 21 22 24 25 26 26 27 27 27 27 26 26 27 27 27 27 28
19 20 21 21 20 19 18 16 16 17 16 16 16 16 16 17 17 16 16 16 17 16 16 15 16 17 18 18 19 20 20 21 22 23 24 25 26 26 27 28 28 28 28 28 28 27 27 28 28
19 19 19 19 19 18 17 16 16 15 15 14 14 15 16 17 17 17 16 16 16 17 17 17 18 18 18 19 20 20 20 21 21 22 24 25 26 27 28 28 29 28 29 29 29 28 28 29 29
18 19 19 18 17 16 16 16 15 14 12 14 14 15 15 16 17 17 16 16 16 17 17 18 18 18 19 20 21 21 20 20 21 22 23 24 24 26 27 27 27 28 28 29 29 29 29 29 30
18 17 17 17 17 16 16 16 14 12 12 13 13 15 15 16 16 16 17 18 17 17 17 17 18 18 19 20 20 21 21 21 22 23 23 24 25 26 27 27 28 28 29 29 29 29 29 30 30
16 16 16 16 16 16 16 15 14 12 12 13 14 14 14 14 15 17 17 18 19 20 19 19 19 19 20 20 21 22 22 23 23 24 24 25 26 26 26 27 28 28 29 29 30 29 29 29 29
16 17 17 16 15 16 15 16 14 13 12 13 13 14 15 15 17 17 18 18 19 20 21 21 21 21 21 22 22 23 24 24 24 25 26 26 26 27 27 28 28 28 28 28 28 29 28 29 29
16 16 17 16 15 15 15 16 14 13 13 13 13 14 15 16 16 16 17 19 19 20 21 22 22 22 22 23 23 24 25 25 25 26 26 27 27 27 28 28 28 28 28 28 28 28 28 28 28
17 16 16 16 16 16 15 16 15 13 13 14 14 14 15 15 15 16 16 18 19 20 21 22 23 23 24 24 24 25 26 26 26 26 27 28 27 27 28 28 28 28 28 28 29 28 28 28 28
17 17 16 16 16 16 16 16 15 14 14 14 15 15 15 15 15 16 17 18 20 21 21 22 23 24 24 25 26 26 27 27 28 28 28 28 28 28 28 28 28 29 29 29 29 29 29 28 28
16 16 16 17 17 17 16 15 14 14 14 15 15 15 15 15 16 17 19 20 21 21 21 22 23 24 25 25 26 27 28 29 29 29 29 28 28 28 28 28 28 28 28 28 28 28 29 29 28
17 17 17 17 17 17 16 16 15 14 14 14 15 15 16 17 18 19 20 22 22 21 22 23 24 25 25 26 26 27 28 28 29 28 28 28 27 27 27 27 28 28 28 28 28 28 28 28 28
15 16 17 17 17 17 17 16 15 15 15 16 16 17 18 19 19 20 21 22 21 22 22 23 24 24 25 26 26 26 27 27 28 27 27 27 27 27 27 27 26 26 26 26 26 27 27 26 26
15 16 16 16 17 17 18 17 16 16 16 16 17 18 19 20 20 20 21 22 23 23 24 24 24 25 25 25 25 26 26 27 27 26 26 26 26 26 26 25 25 25 25 25 25 26 25 25 25

GEFSSGP_500_meanwind_150.txt.gz
Wind_Speed
13 13 13 13 13 12 13 12 11 10 9 7 6 5 5 3 3 3 3 3 3 3 3 3 3 4 4 5 6 6 5 4 4 4 3 3 3 3 3 3 3 3 3 3 4 4 5 4 4
14 14 14 15 13 13 15 14 13 12 10 8 7 6 6 5 4 4 4 4 5 5 5 5 5 6 7 7 8 8 7 6 6 5 5 5 5 4 4 4 4 5 5 4 5 5 5 5 5
16 15 15 15 15 15 17 16 14 13 12 10 9 8 7 6 6 6 6 6 6 7 7 7 8 8 8 8 9 9 8 8 7 7 7 7 7 6 6 7 6 6 6 6 6 7 7 7 6
16 16 16 16 17 19 19 17 16 14 13 12 11 9 8 8 8 8 8 8 8 7 7 8 9 9 9 9 10 10 9 9 9 8 8 8 8 9 9 9 9 8 8 8 8 8 8 8 8
17 17 17 18 19 19 19 19 17 16 15 13 12 10 9 9 9 9 9 8 9 9 9 10 11 11 11 11 11 11 11 11 10 10 10 10 10 10 10 10 10 10 10 10 10 10 10 10 9
17 17 17 18 20 20 20 20 19 17 15 14 12 11 11 10 10 10 10 11 11 10 10 11 11 11 12 12 12 12 12 12 12 12 12 12 12 12 12 12 12 12 12 11 11 12 12 12 11
17 17 19 20 20 21 21 20 20 18 16 15 13 13 13 12 11 11 12 12 12 11 10 11 11 12 13 13 13 13 13 13 13 14 14 14 14 14 14 14 14 14 14 14 13 13 14 14 13
18 18 20 21 21 22 22 20 20 19 17 16 15 15 14 14 14 14 14 14 13 12 12 12 12 13 14 14 15 15 15 15 15 16 16 16 16 16 16 16 16 16 16 15 15 15 15 15 15
18 19 21 22 23 23 22 21 20 19 19 17 17 16 16 15 15 15 15 14 14 14 14 14 14 14 14 15 15 16 16 16 16 17 17 17 18 18 17 17 18 17 17 17 17 17 16 16 16
18 20 22 22 22 22 22 21 21 20 19 18 17 17 16 16 16 16 16 15 14 15 15 15 15 15 16 16 17 17 17 17 17 17 18 18 18 19 19 19 19 18 18 18 18 18 18 18 18
19 21 21 21 22 22 22 21 21 20 20 19 19 18 17 17 16 16 16 15 15 15 16 17 17 17 17 17 18 18 19 19 19 19 19 19 20 20 20 20 20 20 20 19 20 20 19 19 19
19 19 20 21 21 22 22 22 21 20 20 19 19 19 18 18 17 17 17 16 16 16 16 17 18 19 19 18 19 19 19 19 20 20 21 21 22 22 22 21 21 21 21 21 21 21 21 21 21
19 19 19 20 21 21 21 21 20 20 20 19 19 19 18 17 17 17 17 17 17 16 16 16 18 19 19 19 20 21 21 21 21 22 22 23 23 23 24 23 23 23 23 22 23 23 23 23 22
18 18 19 20 21 21 21 20 20 19 18 19 19 19 19 19 18 17 16 16 17 17 17 18 18 19 19 20 21 21 21 22 23 24 24 25 25 25 25 25 25 25 24 24 24 24 25 24 24
18 18 18 20 20 20 19 20 20 19 19 19 19 18 18 18 17 17 16 16 17 18 18 18 19 19 19 19 21 21 21 23 23 24 25 26 26 27 27 26 26 26 26 26 25 25 25 25 26
17 17 18 18 19 18 17 19 20 19 19 18 18 18 18 18 18 18 18 17 17 18 19 19 20 20 20 21 21 21 21 22 23 24 24 25 26 27 27 27 27 27 27 27 27 26 26 26 26
17 16 17 17 17 17 17 19 19 18 18 18 17 18 18 18 18 18 18 18 18 18 18 18 18 19 20 21 22 22 21 21 22 23 24 25 26 27 27 27 27 28 28 27 28 28 27 27 27
16 16 16 15 16 15 16 17 18 17 17 17 17 18 19 19 19 18 18 18 17 18 18 17 19 20 21 21 22 22 22 23 23 24 25 26 26 27 27 28 27 28 28 28 29 28 28 28 28
16 15 14 14 14 15 16 16 16 16 17 17 17 18 18 19 18 18 18 17 18 17 17 18 19 20 21 21 21 21 22 23 24 25 25 26 26 27 28 28 28 27 28 29 29 28 28 29 29
14 14 13 14 13 14 14 15 15 15 16 16 16 16 17 18 18 18 19 19 18 18 18 19 20 20 21 21 22 23 24 25 25 26 27 27 27 28 28 28 28 29 29 29 29 29 30 30 30
13 13 13 14 14 14 13 13 14 15 15 15 15 16 17 18 18 19 19 18 18 19 20 20 20 20 21 23 24 24 24 25 26 26 27 27 27 27 28 28 29 29 28 28 29 29 30 30 30
12 13 13 13 13 13 12 12 15 16 16 15 15 16 16 16 17 17 18 19 19 20 21 21 21 21 22 23 23 24 24 25 26 26 27 28 28 28 28 28 27 27 28 28 28 29 30 31 30
13 13 12 12 12 12 13 12 14 16 15 14 15 16 16 16 17 17 18 19 19 20 21 21 21 22 23 23 24 25 25 25 26 26 27 28 28 28 28 28 28 28 29 29 29 29 30 30 31
12 12 12 12 11 11 12 12 12 13 13 14 14 15 16 16 17 17 17 19 20 20 20 21 22 22 23 24 25 25 26 27 27 28 29 29 29 29 29 29 29 30 30 30 30 30 30 30 31
13 11 10 10 11 12 12 12 13 13 13 14 14 15 15 15 16 17 17 18 19 20 21 22 22 23 24 25 26 27 27 28 29 30 30 30 30 30 30 30 30 30 31 31 31 31 31 31 31
13 12 12 11 11 12 13 13 13 13 13 13 14 14 15 16 16 17 18 18 19 21 22 22 23 24 25 26 27 28 28 29 30 31 30 31 31 31 30 30 30 30 31 31 31 31 31 31 31
14 13 13 13 13 12 13 14 13 13 13 14 14 14 14 16 16 17 18 19 20 21 23 23 24 25 26 26 26 27 27 28 29 29 30 30 31 31 31 30 30 30 30 30 31 31 31 30 30
14 14 13 13 13 13 13 14 14 14 14 15 15 15 16 17 17 17 18 20 21 22 24 25 26 26 27 26 26 25 26 27 27 27 28 28 29 29 29 29 29 29 29 29 29 29 29 29 29
13 14 14 14 14 13 13 15 15 15 14 15 16 16 16 16 17 18 19 20 22 23 24 25 25 26 26 25 25 25 25 25 26 26 27 27 27 27 27 27 28 28 27 27 27 28 28 27 28
13 13 13 13 14 14 14 16 16 15 15 15 16 16 16 16 17 18 19 20 21 23 24 24 25 26 25 24 25 24 24 25 26 26 27 27 26 26 26 26 26 26 26 26 26 26 26 26 26

GEFSSGP_500_meanwind_156.txt.gz
Wind_Speed
12 10 9 7 6 4 2 5 10 11 12 11 10 10 10 9 8 9 8 8 7 8 7 6 6 6 7 7 7 8 8 8 8 7 7 7 6 6 6 6 5 5 5 5 5 5 5 4 4
12 11 10 9 7 4 4 9 13 14 14 12 12 12 11 11 10 10 9 9 9 9 9 9 8 9 9 9 9 9 9 9 9 9 9 8 8 7 7 7 6 6 6 6 6 6 6 6 6
13 12 11 10 7 5 8 13 15 18 15 13 13 13 12 12 11 10 9 9 10 10 10 10 11 11 12 11 11 11 11 11 11 11 10 10 9 9 9 8 8 8 8 8 8 8 8 7 7
14 12 11 10 8 7 12 16 18 18 15 15 15 14 14 13 12 11 11 11 11 11 11 11 12 13 13 14 13 13 13 13 13 12 12 12 11 11 10 10 10 10 10 10 9 9 9 9 9
14 13 12 10 8 12 15 18 17 16 15 15 15 16 14 13 12 12 12 12 12 12 12 12 13 13 14 15 15 15 15 15 15 14 14 14 13 12 12 12 12 12 12 11 11 11 11 11 11
15 13 12 10 10 16 17 20 18 15 15 16 16 15 14 13 13 13 13 13 13 13 13 13 14 15 15 16 16 17 17 17 16 16 15 15 14 14 14 13 13 13 13 12 13 13 13 13 13
15 14 12 10 13 18 19 20 19 16 16 16 18 16 15 13 14 15 15 15 14 14 15 15 15 16 17 18 19 18 18 18 18 18 17 17 16 15 15 15 15 15 14 14 14 14 15 15 15
15 15 13 12 16 20 21 21 19 17 16 16 18 17 16 14 15 16 16 16 16 16 16 16 16 17 18 19 20 20 20 20 19 19 19 19 18 17 16 16 16 16 16 16 15 16 16 16 16
15 15 14 13 15 20 22 22 18 17 17 17 18 18 17 16 15 16 17 17 17 17 17 16 17 18 18 19 20 21 21 21 20 20 19 19 19 19 18 18 18 17 17 17 17 17 17 17 17
15 14 12 12 17 20 21 20 18 17 18 20 19 18 16 15 15 16 17 17 18 18 18 17 19 18 19 18 19 20 20 20 20 19 19 19 20 20 19 19 19 19 19 18 18 18 18 18 18
15 15 14 16 21 21 20 19 18 17 18 20 20 18 16 15 16 16 17 18 19 19 19 19 20 19 19 19 20 20 21 21 19 19 20 20 21 20 20 20 20 20 20 20 20 19 19 19 19
16 17 17 19 20 22 21 21 20 18 18 18 19 18 17 17 16 17 18 19 19 19 19 19 20 20 20 21 22 22 22 22 22 21 22 22 22 21 20 20 21 21 21 21 20 20 20 20 21
18 18 19 19 20 19 19 19 18 19 19 17 17 16 16 16 18 18 18 19 19 19 19 19 19 21 20 21 21 22 22 23 22 22 22 23 22 22 22 21 22 22 22 22 22 22 22 22 22
18 18 17 17 17 17 16 18 19 19 20 20 17 17 16 17 17 18 19 19 19 19 19 19 19 20 21 22 23 22 22 23 23 23 23 23 23 23 23 22 23 24 24 23 24 24 24 24 24
18 17 16 17 17 17 17 17 18 18 18 19 18 16 16 16 17 18 19 19 19 20 19 19 19 20 21 23 23 23 23 23 23 23 24 24 24 24 24 24 24 25 25 25 25 25 25 25 25
15 15 16 16 16 15 17 18 19 18 18 18 19 19 18 17 16 17 18 19 20 20 20 20 20 21 22 24 24 24 24 24 25 26 26 26 26 25 25 25 25 25 26 26 26 26 26 26 25
13 13 15 15 15 14 15 18 18 18 16 17 17 18 18 18 18 17 17 18 19 20 20 20 21 21 23 24 25 26 25 25 27 26 26 27 26 25 26 26 26 27 27 28 28 27 26 26 26
12 14 15 16 15 14 15 18 18 19 19 17 18 18 17 18 18 18 18 19 19 20 20 20 21 21 23 24 25 26 26 26 27 27 27 27 27 27 27 27 27 28 29 29 28 28 28 27 27
14 15 15 14 16 15 16 18 18 18 20 19 19 19 19 19 19 19 19 19 19 19 19 20 21 21 23 23 25 26 26 27 28 28 28 28 27 28 28 28 29 29 29 30 29 29 29 28 27
15 16 16 15 17 16 15 18 18 19 19 19 19 20 21 20 19 18 18 18 19 21 21 21 22 22 23 24 24 25 26 26 25 26 27 28 28 28 29 29 29 30 30 30 30 30 30 29 28
16 14 13 16 16 15 15 16 17 19 19 19 19 21 19 18 19 19 19 19 20 21 22 22 23 23 24 24 25 25 25 25 25 25 25 27 29 29 30 29 29 30 30 30 31 30 30 29 29
13 14 15 16 16 14 14 17 18 19 21 20 20 19 19 18 19 20 20 21 21 20 21 22 23 24 25 26 25 25 25 25 25 26 27 28 29 29 30 29 29 30 30 30 30 29 29 29 29
13 15 15 15 14 15 16 17 18 21 22 20 20 20 18 18 20 21 22 22 21 21 22 23 24 24 24 24 25 25 25 26 27 28 29 29 29 30 30 31 30 30 30 30 31 30 30 30 30
13 14 13 14 15 18 18 19 20 21 20 19 19 19 18 19 20 21 22 23 23 23 23 23 23 23 23 24 25 26 26 27 28 28 29 29 30 30 31 31 31 31 31 31 31 30 31 31 30
13 13 13 15 18 18 17 19 20 20 20 20 20 18 18 20 20 21 21 22 23 23 22 23 23 23 24 24 25 25 26 27 28 29 30 30 30 31 31 31 31 31 31 31 31 31 31 31 31
12 13 15 16 15 15 16 18 19 17 17 19 19 19 20 22 22 22 22 22 23 22 22 23 24 24 25 25 26 26 28 29 29 30 31 31 31 31 31 30 30 30 29 29 29 30 30 30 30
12 13 14 15 15 16 16 16 16 18 18 18 18 19 22 23 23 22 22 23 22 23 23 24 25 25 25 25 26 27 28 29 30 30 31 31 30 30 29 29 29 28 28 28 28 28 28 28 28
13 13 14 16 15 15 16 17 18 16 18 18 19 21 21 22 22 23 23 23 23 23 23 24 24 25 25 26 26 26 27 28 28 28 29 29 28 28 27 27 27 28 28 28 28 28 27 28 28
14 14 15 16 16 16 17 19 18 18 20 20 18 19 21 22 23 24 24 24 23 24 24 25 25 25 26 26 26 27 28 28 28 28 28 28 28 27 27 26 26 26 26 26 26 26 26 26 26
14 14 15 17 18 18 19 22 22 22 21 21 21 20 20 21 22 23 24 24 24 25 25 25 25 26 26 26 26 26 27 27 26 26 26 26 26 25 25 24 24 24 24 24 24 24 24 24 25

GEFSSGP_500_meanwind_162.txt.gz
Wind_Speed
12 11 11 10 11 10 10 9 7 7 6 6 7 8 8 8 7 6 6 5 5 4 4 4 4 5 5 6 7 8 8 9 10 10 11 11 11 11 11 11 10 10 10 9 8 8 8 8 8
13 12 12 12 12 11 10 9 9 7 7 7 8 9 10 10 9 8 6 6 6 6 6 6 6 6 7 8 8 9 10 10 11 12 12 12 12 12 12 12 11 11 11 11 10 10 9 9 9
15 14 14 13 13 12 11 10 8 8 8 9 10 10 11 11 10 9 8 7 7 7 7 8 8 8 9 9 10 11 11 12 12 13 13 13 13 13 13 13 13 12 12 12 12 12 11 11 10
16 15 15 15 15 13 12 11 10 10 10 11 11 12 12 11 11 11 10 9 9 9 9 9 9 10 10 11 11 12 13 14 14 14 14 15 15 15 15 15 14 14 14 14 13 13 13 12 12
16 16 16 16 16 14 12 11 9 11 12 13 12 13 13 11 11 11 10 9 10 10 10 10 11 11 12 13 13 14 15 15 16 16 16 16 16 16 16 16 16 16 16 15 15 14 14 14 13
16 16 16 17 17 15 14 13 11 12 13 14 14 14 13 12 11 12 11 10 10 11 11 12 13 13 14 15 15 16 16 17 17 18 18 18 18 18 17 17 17 17 17 17 16 16 16 15 15
17 17 17 18 19 17 14 13 14 14 15 16 16 15 15 14 12 13 12 12 11 11 12 13 14 15 15 16 16 17 18 18 19 19 19 20 20 19 20 19 18 18 18 17 18 18 17 16 16
18 18 18 19 19 18 15 13 15 17 17 17 17 16 15 15 14 13 13 12 12 12 13 14 14 15 16 15 16 17 18 18 19 19 19 20 20 21 21 20 20 19 19 19 19 19 18 18 17
18 19 19 20 20 19 17 16 17 17 17 16 16 16 15 15 15 14 14 13 12 13 15 15 15 16 17 16 16 17 18 18 18 19 20 20 21 21 21 21 20 20 19 19 19 19 19 19 19
18 19 19 21 21 20 18 17 17 19 18 17 17 17 17 16 15 15 14 13 13 14 15 15 15 16 16 17 17 18 18 18 18 18 19 20 20 21 21 21 20 20 20 20 20 20 20 20 20
19 19 20 21 21 21 19 19 18 18 17 17 17 18 17 16 16 15 13 12 13 14 15 15 16 17 17 18 18 17 18 18 19 19 20 20 21 22 22 22 22 22 22 21 21 21 21 21 21
20 21 21 22 22 21 20 20 20 19 18 18 19 17 16 17 16 15 13 13 14 14 15 16 17 17 17 18 19 18 19 19 20 21 21 22 22 23 24 24 23 23 22 22 21 21 21 21 22
22 22 22 23 22 20 20 21 20 20 19 18 17 17 17 16 14 15 13 14 14 15 16 17 17 18 18 18 18 19 19 20 20 20 21 21 22 23 23 23 23 23 22 22 22 21 22 22 22
23 23 23 22 20 20 20 20 20 19 19 18 16 16 17 17 16 15 13 14 15 16 17 18 18 18 18 19 20 20 21 21 21 21 21 21 22 23 23 24 24 23 23 23 23 22 22 23 23
23 24 23 22 21 19 17 17 18 18 16 16 16 16 16 16 16 15 14 16 16 16 17 18 18 19 19 20 20 21 22 22 22 23 22 23 23 24 24 25 24 23 23 23 24 23 24 24 24
23 23 23 22 21 19 16 16 16 15 15 15 16 16 16 13 14 15 15 16 18 17 18 19 19 19 20 21 21 21 22 22 22 23 23 25 24 24 25 24 24 23 24 24 24 25 24 24 25
21 21 21 21 20 18 17 16 15 15 15 14 14 15 15 13 15 15 16 17 18 18 19 19 20 20 21 22 22 21 22 22 23 24 25 25 24 24 24 24 24 24 24 25 25 26 25 25 25
19 21 20 19 17 16 15 14 14 15 14 14 15 14 14 15 15 16 17 17 18 18 19 19 19 20 21 22 22 22 22 22 23 25 25 25 25 25 24 25 25 25 25 26 26 26 26 26 26
19 20 18 17 16 16 15 16 15 15 16 15 15 15 14 14 16 17 18 18 18 18 19 19 20 21 22 22 22 22 22 22 23 24 25 25 25 25 24 25 25 25 26 27 28 28 28 28 27
18 17 17 16 15 16 16 17 17 16 15 16 16 16 17 16 16 18 18 18 17 17 18 19 20 21 22 21 22 23 23 24 24 24 25 25 25 25 25 24 25 26 27 27 28 28 28 28 28
16 16 14 14 13 15 17 18 18 17 17 17 17 17 17 17 18 19 20 19 18 17 19 19 20 21 21 21 22 24 24 25 26 26 26 26 25 25 25 25 25 26 27 27 28 28 28 28 29
14 13 14 13 14 16 18 19 19 18 18 18 17 17 17 17 19 19 18 18 17 18 19 19 20 20 21 21 22 24 24 25 26 26 26 26 26 26 26 26 26 27 27 27 28 28 29 29 29
12 12 13 14 15 16 18 20 20 19 18 18 18 18 19 19 19 19 19 18 18 19 19 19 19 20 21 22 23 24 25 25 25 26 26 26 26 26 26 27 27 27 27 27 27 28 29 29 29
11 12 13 14 16 18 18 20 20 19 20 20 19 20 20 19 20 20 19 18 19 19 19 20 20 21 22 23 23 24 24 25 26 26 26 26 26 27 27 28 28 28 28 28 28 29 29 29 29
13 13 14 15 17 17 17 19 18 18 18 18 19 20 20 20 21 20 19 19 18 19 20 20 22 22 22 23 23 23 24 24 25 26 26 26 26 27 27 28 28 28 28 29 29 28 27 27 27
13 14 14 15 16 16 18 19 18 17 18 18 19 20 20 20 19 18 18 18 19 20 21 22 21 21 22 23 23 24 25 25 25 25 26 26 26 27 27 28 28 28 28 28 28 27 27 27 27
11 13 14 16 16 16 16 17 16 15 16 17 19 19 18 18 17 17 19 20 20 21 22 21 20 21 22 23 23 24 24 24 25 25 25 25 25 26 26 27 27 27 27 27 26 26 26 26 26
13 13 14 17 17 18 17 17 17 16 15 16 15 15 16 16 17 18 19 20 20 21 20 21 22 21 22 22 23 23 24 25 25 25 25 25 25 26 26 25 25 25 26 26 25 25 25 24 24
15 16 17 17 19 19 19 17 17 17 17 17 17 17 17 16 17 17 18 19 20 20 20 21 20 20 21 22 23 23 24 25 24 24 25 25 25 25 24 24 23 23 23 22 21 21 21 21 21
16 18 18 18 19 19 19 17 17 18 19 18 17 17 15 15 16 17 19 20 20 20 20 19 19 20 20 21 22 23 24 24 24 24 24 24 24 23 23 22 21 20 20 19 19 18 18 18 18

GEFSSGP_500_meanwind_168.txt.gz
Wind_Speed
13 13 12 12 12 12 11 9 7 6 5 3 3 2 2 3 4 4 5 4 4 5 5 5 6 6 6 6 7 7 8 8 9 9 10 10 11 11 12 12 12 12 12 12 12 12 12 11 11
14 14 14 14 13 13 12 11 10 8 6 5 4 3 4 4 5 6 6 6 6 6 7 7 7 7 7 8 8 9 9 9 10 10 11 11 12 13 13 13 13 14 13 13 14 13 13 13 13
15 15 15 15 14 14 14 12 11 9 8 7 6 6 5 6 6 7 7 7 7 8 8 8 8 8 8 9 9 10 10 10 11 12 12 13 13 14 14 15 15 15 15 15 15 15 15 14 14
16 16 16 16 16 15 15 13 12 11 9 9 8 7 7 7 7 7 7 8 8 9 9 10 9 9 9 10 10 11 11 12 12 13 14 14 15 15 16 16 16 16 16 17 17 16 16 16 15
17 17 17 17 17 16 16 14 13 13 11 10 9 8 8 9 8 8 9 9 10 10 11 11 11 11 10 11 11 12 13 13 14 14 15 16 16 17 17 17 18 18 18 18 18 18 18 17 17
17 18 18 18 18 18 17 15 14 14 13 12 10 10 10 9 9 9 10 10 11 12 12 12 11 11 12 12 13 13 14 15 15 15 16 16 17 18 18 18 19 19 20 19 19 20 19 19 19
19 18 19 19 19 19 18 17 16 15 14 12 11 11 10 10 10 10 11 11 12 12 12 12 13 13 13 13 14 15 15 16 16 16 17 18 18 19 19 19 19 20 20 20 20 20 20 20 20
20 19 19 20 20 20 19 18 16 15 14 13 13 12 12 11 12 13 13 13 13 13 14 14 14 14 14 14 14 15 16 16 17 17 18 18 19 19 20 20 20 21 22 22 22 21 21 21 21
21 20 20 20 21 21 20 19 17 16 15 14 14 13 13 13 13 13 13 13 13 14 15 15 14 14 14 14 15 16 16 17 17 17 19 19 20 20 21 21 22 23 23 23 23 23 23 22 21
22 21 21 21 22 22 21 20 18 17 16 15 14 13 13 13 14 14 13 13 14 15 15 14 14 14 15 16 16 17 18 18 19 19 20 20 21 22 22 22 23 24 24 25 24 24 24 24 24
22 22 22 22 22 22 22 21 20 19 18 17 16 14 14 13 13 14 14 14 14 14 14 14 14 15 16 17 18 18 19 19 19 19 20 21 22 22 23 23 23 24 24 25 26 26 26 25 25
22 23 23 22 22 21 21 21 21 20 20 18 17 16 15 15 14 14 15 14 14 14 14 16 16 16 17 18 19 19 19 20 20 20 21 22 22 23 23 23 23 24 25 25 26 27 26 26 25
23 22 22 22 21 21 22 21 22 21 20 18 17 16 15 14 14 14 15 15 15 15 16 17 17 17 18 19 19 20 20 20 21 22 23 23 22 23 23 23 23 24 25 25 26 27 26 26 26
23 23 23 22 22 22 23 22 21 19 18 17 16 16 15 14 14 15 15 15 16 15 16 17 17 18 18 19 20 21 21 21 22 23 23 23 23 23 23 24 24 25 25 25 26 27 27 27 28
23 23 24 23 23 23 23 22 21 19 17 17 16 16 16 14 14 15 15 15 16 17 17 17 18 18 19 20 21 22 22 22 22 22 22 23 24 25 25 24 25 26 25 26 26 26 28 28 27
23 23 23 23 23 23 23 22 21 20 18 17 17 17 15 15 14 15 15 16 16 17 18 18 19 19 19 21 22 23 23 23 23 23 23 24 24 25 25 25 25 26 27 26 26 27 27 28 27
23 23 23 23 23 23 23 21 20 19 19 18 17 16 16 15 15 15 16 16 17 17 18 18 18 19 20 21 22 22 23 23 23 23 23 24 25 25 25 24 25 26 27 27 27 27 28 29 29
22 23 23 23 23 22 22 20 19 19 18 17 16 17 17 16 16 16 16 17 18 18 18 19 19 20 20 21 23 23 23 23 24 24 24 24 24 25 25 25 26 26 28 28 28 29 28 29 29
22 22 22 22 23 23 23 21 20 19 17 17 16 16 16 17 16 17 17 18 19 20 20 20 20 21 22 22 23 23 23 23 24 25 25 25 25 25 26 27 27 28 28 29 29 29 29 30 30
20 21 21 22 23 24 23 22 21 20 18 16 16 16 17 17 17 17 19 20 21 21 21 21 21 22 23 23 23 23 22 23 24 25 25 26 25 26 26 27 28 29 29 30 30 30 30 30 30
19 19 20 21 21 22 23 22 21 19 17 17 17 17 17 17 18 18 19 20 21 22 22 23 23 23 23 22 23 23 23 24 25 26 26 26 26 27 27 28 29 30 30 30 30 30 30 30 31
18 18 18 19 20 20 21 20 18 18 17 17 17 18 17 17 18 19 19 20 21 22 22 22 23 24 24 24 24 24 24 24 25 25 26 27 28 28 28 29 29 30 30 31 30 30 30 29 29
16 18 18 17 19 19 19 21 19 19 18 18 18 18 18 19 19 19 19 20 21 21 22 22 23 23 22 22 23 24 24 25 25 26 26 27 28 28 29 29 29 29 30 30 30 29 28 28 29
15 16 18 18 19 19 18 19 19 18 18 18 18 18 18 19 19 20 19 20 20 21 21 21 22 22 22 22 23 24 24 25 25 25 26 27 28 28 29 29 29 29 29 29 29 28 28 28 28
14 15 17 18 18 19 19 19 18 17 18 18 18 18 18 19 20 19 19 20 21 22 21 21 21 21 22 22 23 24 24 24 25 25 26 27 28 29 29 28 28 28 28 27 27 27 28 28 28
13 14 16 16 16 17 18 18 17 17 18 18 18 18 19 19 19 19 20 21 22 22 22 21 21 22 22 23 24 24 24 23 24 25 26 26 27 28 28 28 29 28 27 26 26 26 27 27 26
15 16 17 17 18 18 17 17 16 17 18 18 18 18 18 18 18 18 20 21 22 22 22 22 20 20 21 23 23 23 23 23 24 24 25 26 26 26 26 26 26 26 26 25 25 25 25 25 25
16 16 17 18 19 18 17 16 16 16 18 19 18 18 18 18 18 19 21 20 20 21 20 20 19 19 20 21 22 23 23 23 24 25 25 25 24 24 25 24 24 23 23 23 23 23 23 23 23
17 17 18 19 19 19 18 16 17 16 16 17 18 17 17 18 19 20 20 19 19 20 20 18 18 19 19 20 22 22 23 23 23 23 23 22 22 23 23 23 22 22 22 22 21 21 21 22 22
18 18 18 19 19 19 19 18 17 17 16 17 17 17 17 17 18 19 19 18 18 19 18 18 18 19 19 20 22 22 22 22 22 22 22 22 22 22 22 22 22 22 22 21 21 20 20 21 21

GEFSSGP_500_meanwind_174.txt.gz
Wind_Speed
12 11 11 10 9 8 9 8 8 7 7 6 5 5 4 3 3 2 2 2 2 2 3 3 4 4 5 5 6 6 7 7 7 6 6 6 7 7 6 7 7 8 8 8 8 8 8 8 8
13 13 12 12 11 10 10 10 9 9 8 7 6 6 5 5 4 4 3 3 4 4 4 4 5 5 6 7 7 7 8 8 8 8 8 8 8 8 8 8 9 9 9 10 10 10 9 9 9
14 14 13 13 13 12 12 11 10 10 9 8 7 7 6 6 5 5 5 5 5 5 6 6 6 7 8 8 8 9 9 10 10 9 9 9 10 10 10 10 10 10 11 11 12 11 11 11 11
15 14 14 14 14 14 13 12 11 10 10 9 8 7 7 7 6 6 6 6 7 7 8 8 8 9 9 10 10 11 11 11 11 11 11 11 11 11 11 11 12 12 12 13 13 13 13 13 12
16 15 15 15 15 15 14 13 12 12 10 9 8 8 8 8 8 8 8 8 8 9 9 9 10 11 11 11 12 12 12 12 12 12 12 12 12 12 13 13 14 14 14 14 14 14 14 14 14
16 15 15 15 16 15 14 14 13 12 11 10 9 10 9 9 9 9 9 10 10 10 11 11 12 12 12 12 13 13 13 13 13 13 13 13 14 14 14 15 15 15 15 16 16 16 15 15 16
16 15 15 16 16 16 15 14 13 12 12 12 11 10 10 11 10 10 11 11 12 13 12 13 13 13 13 13 13 13 14 14 14 14 14 15 15 15 15 16 16 17 17 17 17 17 17 17 17
17 16 16 16 17 17 16 14 14 13 13 13 13 12 11 11 11 11 12 13 13 13 13 12 13 13 14 14 14 15 15 15 15 15 15 15 16 17 17 17 17 18 18 19 19 19 19 19 19
17 17 17 17 17 17 16 15 15 14 14 14 14 13 12 11 11 12 13 14 14 14 13 13 14 14 15 15 16 16 16 16 16 17 17 17 18 18 18 19 20 20 20 21 21 21 21 21 21
18 18 19 19 18 17 16 15 15 15 15 15 14 13 14 13 13 13 14 14 14 14 15 14 15 16 16 16 17 17 17 18 18 18 19 19 19 20 20 21 21 21 21 22 22 22 23 23 22
19 20 19 18 18 17 16 16 15 15 15 15 15 15 15 15 15 15 15 15 16 16 15 16 17 17 17 17 18 18 18 19 19 19 19 20 20 21 21 22 22 23 23 23 24 24 24 24 24
18 19 19 18 18 17 17 17 16 16 16 16 16 15 15 15 15 16 16 16 16 16 16 16 17 18 18 19 19 19 19 19 20 20 20 21 22 22 23 23 23 24 24 25 25 25 25 25 25
18 19 19 18 18 18 17 17 17 17 16 16 16 17 17 16 16 16 16 17 18 18 18 17 17 18 19 20 20 20 20 20 20 21 21 22 23 23 23 24 24 24 25 25 26 26 26 26 26
19 19 19 19 19 18 18 18 18 17 17 16 17 17 17 17 17 17 17 18 18 19 19 19 19 19 20 21 21 21 21 21 22 22 23 23 23 23 23 24 25 26 26 27 27 27 28 28 28
18 19 19 19 19 19 19 19 19 18 18 18 18 18 18 18 18 18 18 18 19 19 20 19 20 20 20 21 20 21 22 23 23 24 24 24 24 24 24 25 26 27 27 28 28 28 29 29 29
17 18 19 19 19 18 18 19 19 19 19 19 19 19 18 19 18 18 19 19 20 20 20 20 20 20 19 20 21 22 23 24 24 25 25 25 25 25 26 26 26 27 28 28 28 29 29 28 28
16 17 18 19 19 18 18 19 19 19 19 19 18 18 18 19 19 19 19 20 20 20 20 20 20 20 20 21 22 23 23 24 24 25 26 26 26 26 27 27 27 27 28 28 29 29 28 28 29
15 16 17 18 18 18 18 19 19 19 18 18 19 18 18 18 19 20 20 20 21 21 22 21 21 21 21 22 22 23 23 24 25 26 26 27 27 28 28 28 28 28 28 29 29 29 29 28 28
15 16 16 18 18 18 18 19 19 18 18 19 18 18 18 18 19 19 20 21 21 22 21 21 21 21 22 23 23 24 25 25 26 26 27 27 28 28 28 28 29 29 29 29 29 29 29 28 27
14 15 16 17 18 18 18 18 19 18 18 19 19 18 18 19 19 19 20 21 21 21 22 22 22 23 22 23 24 25 25 26 27 27 27 27 28 28 28 28 30 30 30 30 30 29 28 27 27
14 14 15 17 18 18 18 18 18 19 19 19 19 19 18 19 20 21 20 20 20 21 22 21 21 21 22 22 24 24 24 26 27 26 26 27 27 28 28 29 29 30 30 30 30 29 29 28 29
14 15 16 17 16 17 17 18 18 19 19 18 18 18 18 19 20 20 19 20 21 22 21 21 21 22 22 23 24 24 25 25 26 26 26 27 27 27 28 29 29 30 30 30 30 29 29 29 29
15 15 16 17 17 18 18 17 16 17 18 18 18 18 18 18 20 19 19 20 21 22 22 22 23 23 23 23 24 24 24 24 25 26 26 27 28 28 28 29 29 29 30 30 29 29 29 29 28
15 15 16 17 17 17 17 17 15 16 17 17 18 19 19 19 20 20 21 21 22 22 23 23 23 24 24 23 24 23 23 24 25 26 27 27 27 28 28 29 29 29 29 29 28 28 28 28 27
14 13 13 13 14 15 15 17 16 17 16 16 17 19 19 20 20 21 21 21 22 23 23 23 23 23 22 22 23 23 23 24 25 25 26 26 27 28 28 29 29 28 27 27 27 27 26 26 26
14 13 13 14 14 13 16 16 16 17 17 17 17 18 19 19 20 21 21 21 22 22 22 23 22 22 22 23 23 23 24 24 24 25 25 26 27 28 27 26 26 26 26 25 24 24 24 24 24
13 13 14 15 15 15 15 16 17 16 17 17 17 17 18 18 19 20 20 21 21 21 21 22 22 22 22 23 23 23 23 23 24 25 26 26 26 26 25 24 24 24 24 23 23 23 22 23 23
14 14 14 13 14 15 16 16 16 16 16 16 16 17 17 18 19 19 19 20 20 21 21 21 21 21 22 23 22 21 21 22 23 23 22 23 23 22 21 22 23 23 22 22 22 22 22 22 22
15 15 15 14 15 14 15 16 17 17 17 17 17 18 18 18 18 19 19 20 20 21 21 21 20 19 20 21 21 21 21 21 21 21 21 21 20 21 21 21 22 21 21 21 21 22 22 22 22
14 14 15 15 16 16 16 17 18 17 18 18 17 17 18 17 18 18 18 19 19 20 20 20 19 18 19 19 20 20 19 20 20 20 19 19 20 20 20 21 21 21 21 20 21 21 21 22 22

GEFSSGP_500_meanwind_180.txt.gz
Wind_Speed
10 9 8 8 7 5 1 3 8 9 10 10 8 8 8 8 7 7 7 7 6 6 6 6 6 7 7 8 8 8 9 9 10 10 10 10 9 9 9 9 9 9 8 8 8 8 8 8 8
11 10 10 9 8 4 3 8 11 11 11 11 10 10 10 9 9 9 9 8 7 7 7 8 8 9 9 10 10 10 10 11 11 11 11 11 11 10 10 10 10 10 9 9 9 9 10 10 10
12 12 11 10 8 6 8 11 12 14 14 13 12 12 11 10 10 10 10 9 9 9 9 10 10 10 11 12 12 12 12 13 12 12 12 12 12 12 11 11 11 11 10 10 10 11 11 11 12
14 12 12 10 9 6 11 12 12 15 15 14 13 13 12 12 11 11 11 11 11 11 11 12 12 12 13 14 14 14 14 14 14 13 13 14 13 13 12 12 12 12 12 12 12 12 12 12 13
14 13 12 10 9 8 13 15 14 15 16 15 14 13 13 12 12 12 12 13 12 12 12 13 13 14 14 15 15 15 15 15 15 15 15 15 15 14 14 14 14 14 14 14 14 14 13 13 13
15 14 11 9 8 11 15 16 14 15 14 15 14 14 14 13 13 13 14 14 13 13 13 13 14 15 15 16 16 16 16 17 17 17 16 16 16 16 15 15 15 15 15 15 15 15 15 15 15
16 14 12 9 10 13 16 17 16 17 14 14 15 14 15 14 14 15 15 15 14 14 15 15 15 15 16 17 17 17 18 18 18 18 18 17 17 17 17 16 16 16 16 16 17 17 17 17 17
16 15 13 11 13 15 18 18 19 19 16 15 15 15 16 14 15 16 16 15 15 16 16 16 17 17 17 18 18 19 19 19 19 19 19 19 18 18 18 18 18 18 18 18 18 18 18 18 18
16 16 13 11 13 17 18 18 18 19 16 15 16 17 16 15 16 16 16 16 17 17 17 18 18 19 18 18 19 20 20 20 20 20 20 20 20 20 19 20 20 20 19 19 19 19 19 20 20
16 15 12 12 15 18 17 17 18 17 16 17 17 18 17 17 17 17 16 17 17 18 19 19 19 20 19 19 20 20 21 22 22 21 21 21 22 21 20 20 21 21 20 20 20 21 21 21 21
15 15 13 16 18 19 18 18 18 17 17 17 17 18 17 17 17 17 17 17 18 19 20 20 19 19 20 20 20 21 21 22 22 21 22 23 22 21 21 21 21 22 21 22 22 22 23 23 23
15 15 16 17 19 21 20 18 17 18 18 18 16 17 16 18 18 18 18 19 19 19 20 20 20 20 21 21 21 22 22 23 23 23 23 23 23 23 23 23 23 23 23 23 23 23 24 25 25
16 17 19 19 19 19 19 18 17 19 18 17 16 18 18 18 19 19 19 20 20 20 21 21 20 21 22 22 22 22 23 23 23 23 24 24 24 24 24 24 24 24 24 25 25 25 25 26 26
16 17 16 16 16 18 17 18 18 19 18 18 18 18 19 19 20 20 20 21 20 20 21 21 21 22 23 23 22 22 22 23 23 23 24 25 25 25 25 25 25 25 25 26 27 28 27 26 27
14 15 16 18 18 18 18 18 19 20 19 20 21 20 21 21 21 21 21 21 21 20 21 21 22 22 23 23 23 23 22 23 24 24 25 26 26 26 25 25 25 26 26 26 27 28 28 29 29
12 13 15 17 18 17 18 18 20 21 21 21 21 21 21 21 22 22 21 20 20 21 21 22 22 22 23 23 24 24 24 24 25 25 25 26 25 26 26 26 26 27 28 28 28 29 29 30 30
12 13 14 16 17 18 18 19 21 22 21 20 20 21 22 22 22 22 21 21 21 21 21 22 23 23 23 24 24 25 25 25 26 25 25 25 25 26 27 28 28 29 29 29 29 30 30 30 30
11 12 14 16 16 19 19 20 20 20 19 19 20 22 22 22 21 22 22 21 22 22 22 22 23 23 23 24 25 25 25 25 26 25 26 26 26 27 28 28 29 30 31 31 30 29 29 29 29
13 15 17 18 17 19 20 20 20 20 19 21 21 22 22 22 22 22 21 21 22 23 23 23 23 24 24 24 25 25 26 26 26 26 26 26 26 27 28 29 29 30 31 31 30 29 29 28 29
14 15 16 16 17 18 20 20 20 20 19 21 22 22 22 23 22 21 21 21 21 22 23 23 23 24 24 25 25 26 26 26 26 26 27 27 27 28 28 28 28 28 29 29 29 29 29 29 29
14 14 15 17 17 18 20 21 20 20 21 22 21 22 22 22 22 22 22 22 21 22 22 23 23 24 24 25 25 26 27 27 27 27 28 28 28 28 28 28 28 28 28 29 29 29 29 30 29
14 15 16 17 17 17 18 21 19 20 22 21 21 21 20 19 21 22 23 22 22 22 23 24 24 24 24 25 26 27 27 28 28 29 29 28 27 27 28 28 29 29 28 28 29 29 29 29 29
15 13 15 17 16 17 18 21 19 19 21 21 21 21 20 20 20 22 22 22 23 23 24 24 24 24 25 26 27 27 28 28 28 28 28 27 27 27 28 28 28 28 29 29 28 28 28 28 28
15 14 14 15 15 18 18 20 19 19 21 21 20 20 21 21 22 23 23 23 23 24 24 24 24 25 26 26 27 28 28 28 27 26 26 27 27 26 27 28 28 28 29 29 27 27 27 27 26
15 14 14 15 16 19 18 19 20 19 20 22 21 21 22 23 23 23 24 23 23 23 24 24 24 25 25 26 26 25 25 26 26 26 27 27 26 26 27 27 27 28 28 27 26 26 25 25 25
14 14 16 18 17 18 19 19 19 19 20 21 22 22 22 22 23 23 23 23 23 24 24 24 25 25 25 25 25 25 25 25 25 26 26 26 26 26 26 26 26 26 26 25 25 24 23 23 23
13 15 16 19 18 18 17 18 18 20 21 21 21 21 21 21 22 22 22 22 22 23 24 24 24 24 24 24 24 26 25 25 25 26 25 25 24 25 25 24 24 24 24 24 24 23 22 23 22
13 15 15 16 17 18 16 16 18 18 20 20 21 20 21 22 22 22 22 21 21 22 23 23 22 22 22 23 24 25 25 25 24 25 25 24 24 24 24 24 23 23 23 22 22 21 21 21 21
13 15 15 16 17 18 17 18 19 20 20 19 20 21 22 22 23 22 22 21 20 20 21 21 21 22 22 23 23 23 23 23 23 23 24 24 24 24 23 23 22 22 21 21 21 21 20 20 21
14 15 15 17 17 17 18 19 20 21 21 21 22 21 21 22 22 21 21 20 19 19 20 20 21 21 22 22 22 22 21 21 22 22 23 23 23 23 21 22 21 21 21 20 20 20 20 20 21

GEFSSGP_500_meanwind_186.txt.gz
Wind_Speed
13 12 12 11 11 10 9 7 6 5 4 4 6 6 5 6 6 6 6 6 5 5 4 4 4 5 5 6 7 8 8 9 11 12 12 12 13 13 13 13 13 13 13 12 12 12 12 11 11
14 13 13 13 12 11 9 7 7 7 6 5 6 6 6 7 7 7 7 6 6 6 6 5 6 7 7 7 8 9 10 11 12 12 13 13 14 14 13 13 14 14 13 13 13 13 13 13 13
15 14 14 13 13 11 10 8 8 7 6 6 7 8 9 8 8 9 8 8 7 7 7 7 7 8 8 9 10 10 12 12 13 13 13 14 14 14 14 14 14 15 14 14 14 14 14 14 14
16 15 15 14 13 12 11 10 8 8 8 8 9 11 11 10 10 10 10 9 8 9 9 9 9 9 10 11 12 13 13 14 14 14 14 15 16 16 15 15 15 16 15 16 16 15 15 15 15
16 16 15 15 14 13 12 10 9 9 10 10 11 12 13 12 11 10 10 10 10 11 11 11 11 11 11 12 12 14 14 15 15 15 16 16 16 16 16 16 17 16 16 16 17 16 16 16 16
16 16 15 14 14 14 14 13 11 12 12 11 13 14 13 12 12 11 11 11 10 11 12 12 13 12 12 13 13 14 15 16 16 17 16 16 16 17 18 18 18 18 18 18 18 18 18 18 18
16 15 14 14 15 14 14 12 13 13 12 13 14 15 14 14 13 12 11 13 12 12 13 14 13 13 13 14 15 16 16 17 17 17 17 17 18 18 18 19 20 19 19 19 19 19 19 19 19
16 15 14 15 15 15 14 12 14 14 14 15 16 16 14 15 13 12 12 14 14 13 14 14 14 14 15 15 16 17 18 18 18 18 19 19 19 19 19 20 20 20 20 20 20 20 20 20 19
15 14 15 15 16 15 14 13 14 14 15 17 17 16 16 16 15 14 13 14 14 14 14 14 15 16 16 17 18 18 19 19 19 19 19 20 20 20 20 21 21 21 21 20 21 21 21 21 21
14 14 16 16 16 16 15 14 14 15 17 16 16 16 17 16 16 14 14 14 14 14 14 15 16 17 17 18 19 19 19 19 20 20 20 20 20 20 20 21 22 22 21 21 22 21 22 22 22
14 15 17 17 17 17 15 15 16 17 16 17 16 16 17 17 16 16 15 15 15 16 16 17 17 18 18 19 19 20 20 20 20 21 20 20 21 20 21 22 22 22 22 22 22 23 23 23 23
14 15 16 16 16 16 17 17 17 18 18 19 17 16 16 17 17 16 16 16 16 17 18 18 18 19 19 20 20 20 21 20 21 21 21 20 21 21 22 23 23 23 22 22 23 24 24 24 24
14 16 16 15 16 15 16 18 19 19 19 17 16 16 16 17 18 18 19 18 17 17 18 19 19 20 21 21 21 21 22 22 22 21 21 21 22 22 22 23 23 23 23 23 23 24 24 24 25
13 15 16 16 16 16 16 17 18 18 17 17 16 15 16 17 18 19 19 18 16 16 18 19 20 21 21 21 20 20 21 22 22 22 22 22 22 23 23 23 24 24 24 24 24 25 25 25 25
14 16 16 16 17 17 18 18 19 18 17 17 16 14 15 17 18 18 19 18 17 17 18 19 20 21 21 21 20 21 21 21 22 22 22 23 23 23 23 23 24 24 24 24 25 26 26 26 26
15 16 16 16 17 18 18 19 18 17 17 17 16 15 16 17 17 18 19 19 19 19 19 20 19 20 21 21 21 21 21 21 22 22 23 23 23 24 24 24 24 24 24 25 25 26 27 27 28
15 16 16 17 17 18 19 19 18 17 16 17 16 16 16 16 17 18 19 19 20 19 20 20 20 22 21 21 22 22 22 22 22 22 23 23 24 24 24 25 25 25 25 26 26 26 27 28 28
13 14 16 16 17 19 20 20 19 18 17 16 15 15 16 16 17 17 18 20 19 19 20 21 21 21 20 20 21 22 22 22 22 23 23 24 25 25 25 26 26 26 26 26 26 27 27 27 28
12 13 15 15 16 18 18 18 17 17 17 16 15 15 16 16 17 17 18 19 19 20 21 22 22 21 20 21 21 21 21 21 22 23 24 25 26 26 26 27 27 27 27 27 27 26 27 27 28
11 13 13 13 15 17 17 18 17 16 17 17 17 17 18 17 17 18 19 20 21 22 22 22 20 20 21 21 20 20 21 22 24 24 25 25 26 27 27 28 28 27 27 27 26 26 27 26 27
11 12 12 14 15 16 18 18 17 17 17 17 18 19 19 18 18 18 19 20 21 20 20 20 20 21 20 20 20 21 22 23 24 24 25 25 27 27 27 27 27 27 26 26 26 26 26 26 26
11 12 14 15 15 16 17 17 17 18 18 17 19 19 18 19 19 19 19 19 20 19 19 19 20 19 20 20 21 22 23 24 24 24 25 25 25 25 26 26 26 26 25 25 26 26 26 25 25
12 13 15 16 16 16 17 17 16 17 19 19 19 20 19 19 19 18 19 20 19 18 19 20 19 19 20 21 21 22 23 24 24 24 25 25 25 25 25 25 25 25 25 25 26 25 25 24 24
14 15 15 14 15 16 16 17 15 16 17 19 19 19 19 18 18 20 19 18 18 18 18 18 19 19 19 20 21 22 23 23 23 24 25 26 26 26 26 26 24 24 24 24 25 24 24 23 23
13 14 15 14 15 15 16 18 17 17 17 17 17 18 18 18 18 19 19 17 18 18 18 17 17 18 19 19 20 21 21 22 23 24 25 25 26 25 25 25 24 23 23 23 23 23 23 23 22
14 15 16 16 15 15 17 18 17 18 17 17 16 17 17 19 19 19 19 18 18 18 18 18 18 18 19 19 20 21 22 23 23 24 24 24 25 24 24 23 23 22 22 22 22 22 22 22 22
15 17 18 18 17 17 17 17 18 19 18 18 19 18 18 17 17 17 17 17 17 17 18 19 19 20 20 20 20 21 22 23 23 23 24 24 24 24 24 23 22 21 21 21 21 21 21 21 22
18 18 19 20 20 19 18 18 18 18 18 18 18 17 16 16 16 16 16 17 18 18 18 19 20 20 21 21 21 21 22 23 23 23 23 24 23 23 21 21 20 21 21 21 21 21 22 21 21
18 18 19 20 20 19 18 16 16 17 16 15 15 15 14 14 14 14 15 16 17 17 17 18 20 20 20 20 21 21 21 22 22 22 22 22 21 20 20 19 19 19 20 20 20 20 21 21 21
19 18 18 19 19 18 17 16 15 15 14 15 15 15 14 14 15 14 14 15 16 17 18 18 19 20 20 20 21 21 20 21 21 21 21 20 19 19 18 18 18 19 19 20 20 20 20 20 20

GEFSSGP_500_meanwind_192.txt.gz
Wind_Speed
13 13 12 12 11 9 8 6 7 6 5 5 4 3 3 3 3 4 4 5 5 5 5 6 7 7 7 7 6 7 7 8 9 10 10 11 11 12 12 13 13 14 14 14 13 13 13 13 14
14 14 14 14 12 10 8 7 7 7 6 6 5 5 5 4 5 5 6 6 6 6 7 7 8 8 8 8 7 8 9 9 10 11 12 12 13 13 13 14 14 15 15 14 14 14 14 15 15
15 15 15 15 13 10 9 8 8 8 7 6 6 6 5 5 5 6 6 7 7 7 8 9 9 9 9 8 8 9 10 10 11 12 12 13 14 14 14 15 15 16 16 16 16 16 16 15 16
16 16 16 15 13 11 10 9 9 9 8 7 7 7 7 6 7 7 8 8 8 8 9 10 10 10 10 9 9 10 11 11 12 12 13 14 15 15 15 16 16 17 18 18 18 18 18 17 17
16 16 16 15 13 13 12 11 11 10 10 8 8 8 8 7 8 8 9 9 9 10 10 11 11 11 11 11 11 12 12 12 13 14 14 15 16 16 16 17 18 18 19 19 19 19 19 19 19
16 15 15 15 14 13 13 12 11 10 10 10 9 10 10 9 9 9 10 10 11 11 12 13 13 12 13 13 13 13 13 14 15 15 16 16 16 16 17 18 19 20 20 20 20 20 20 20 20
16 15 14 14 14 14 14 14 13 12 12 11 11 11 11 10 9 9 10 11 11 12 12 13 13 13 13 14 14 14 15 15 16 16 17 18 17 18 19 20 21 21 22 22 22 22 22 22 21
16 15 14 15 15 15 15 14 14 12 12 12 12 12 12 12 11 12 12 11 12 12 13 13 13 14 14 14 14 14 15 16 17 18 18 19 19 20 20 21 22 22 22 22 23 23 23 23 23
15 15 14 15 15 15 16 15 14 14 12 13 13 13 13 13 13 13 13 13 13 14 14 14 14 14 15 15 15 15 16 16 17 19 20 20 21 21 22 22 23 23 23 23 23 24 24 24 24
14 14 14 15 15 15 15 16 15 14 14 14 14 15 15 14 14 13 14 13 14 15 15 15 15 15 16 17 17 16 17 17 19 20 21 22 22 22 23 23 23 23 23 24 24 25 25 25 25
14 14 15 15 15 15 16 16 16 16 15 14 15 16 15 14 14 15 15 14 14 15 16 16 16 18 18 18 17 18 18 19 20 21 22 23 23 23 24 24 24 24 24 24 25 25 26 26 26
14 14 15 15 15 16 16 17 17 15 14 15 15 16 16 16 15 15 15 15 16 16 17 17 18 19 19 19 19 19 20 21 21 22 23 23 23 23 24 24 24 24 24 24 25 25 26 26 26
14 15 16 16 16 16 17 17 16 15 14 15 16 17 17 16 15 15 14 14 15 16 17 18 18 18 19 19 20 20 21 22 23 23 23 23 23 23 23 24 24 24 25 25 25 25 26 27 27
15 16 17 17 17 17 17 18 18 16 17 17 17 18 17 16 16 15 15 15 16 16 16 17 17 18 19 20 20 20 21 22 22 22 23 23 23 23 23 24 25 25 25 25 26 26 26 27 28
15 16 17 18 19 18 19 19 19 19 19 18 18 17 17 16 16 15 15 16 16 16 16 17 18 19 20 20 21 21 22 22 22 22 22 22 22 23 24 24 24 25 26 26 26 27 27 28 28
15 17 18 19 19 19 20 19 20 20 20 19 18 17 17 16 15 15 15 16 16 16 17 17 19 20 20 21 21 21 21 22 21 21 22 22 23 24 24 24 25 25 25 26 27 27 28 28 28
15 16 17 18 19 19 21 20 20 20 20 19 18 17 17 16 16 16 16 16 16 16 16 17 19 20 20 19 19 20 20 21 22 22 22 23 23 23 23 24 25 26 26 26 26 27 27 27 27
14 15 16 17 19 20 20 20 20 19 19 19 19 19 18 17 17 17 17 17 17 16 17 18 19 19 19 19 19 19 20 20 21 22 22 22 23 23 23 24 25 26 26 26 26 27 26 27 27
15 16 16 17 19 20 20 20 20 20 20 20 20 20 19 18 18 18 17 17 17 17 18 19 19 19 19 19 20 21 21 21 21 21 21 22 23 24 24 25 25 26 26 26 26 26 26 26 27
14 15 16 17 19 20 20 20 20 19 19 19 19 19 18 18 19 19 19 19 18 18 19 19 20 20 20 20 20 22 22 21 21 21 22 23 23 24 25 25 25 26 26 25 26 26 26 26 26
14 15 16 17 18 19 20 19 19 18 18 18 18 19 20 20 20 19 19 19 19 19 19 19 20 20 19 19 19 20 21 21 22 22 23 23 23 24 25 26 26 26 26 25 25 25 25 25 25
14 15 16 17 18 19 19 19 18 18 17 18 18 18 19 20 19 19 19 20 20 19 19 19 20 20 19 20 20 20 21 22 22 22 23 23 24 25 25 25 25 25 25 24 24 24 24 24 24
15 16 17 17 18 18 18 19 17 17 18 18 18 18 18 19 19 20 20 20 20 19 19 20 21 20 20 19 19 20 21 21 21 22 22 23 24 24 25 25 25 25 25 24 24 24 24 24 24
16 17 18 18 19 19 18 19 18 17 17 18 19 19 19 18 19 19 19 20 20 19 19 20 21 21 21 21 20 20 20 20 21 22 23 23 24 25 25 26 25 24 24 24 24 25 25 25 25
17 19 19 20 20 19 18 19 17 17 18 19 19 19 19 19 18 19 19 20 20 19 20 21 22 21 20 20 20 21 21 21 22 22 23 24 25 25 25 25 24 24 24 24 24 25 25 25 25
18 19 20 21 21 20 19 19 18 18 18 18 17 18 18 18 18 19 19 19 19 19 20 21 22 22 22 21 20 21 22 22 23 23 23 24 24 24 24 24 24 24 24 24 24 24 25 25 25
19 18 19 20 20 20 20 19 19 19 19 18 18 18 18 18 19 19 18 19 19 19 20 20 21 21 21 22 22 22 22 23 23 23 24 24 23 23 23 24 24 24 24 24 24 24 24 24 24
20 20 19 20 20 21 20 18 19 18 18 18 18 17 18 18 19 18 18 18 18 18 20 21 20 20 21 22 22 22 23 23 23 23 22 22 22 22 23 23 24 24 24 23 23 23 24 23 23
20 20 20 21 21 21 20 17 18 18 18 18 17 17 17 17 17 17 17 17 17 18 19 19 20 20 20 21 21 22 22 23 22 21 22 22 21 22 22 23 23 22 23 22 22 22 23 23 23
20 20 19 20 20 19 20 18 17 17 17 17 16 16 16 16 16 16 16 16 17 18 19 19 19 20 20 20 20 21 21 21 21 21 21 22 22 22 22 22 22 21 21 22 22 22 22 22 23

GEFSSGP_500_meanwind_198.txt.gz
Wind_Speed
10 9 8 8 7 6 6 8 7 5 5 5 5 5 5 4 4 4 4 4 4 4 4 4 5 5 6 7 7 7 7 7 7 7 7 7 7 8 8 9 9 9 10 10 10 11 11 11 11
10 9 9 9 7 6 7 9 8 7 6 6 6 6 6 5 5 5 5 5 5 5 5 5 6 7 7 8 8 8 8 8 8 8 8 8 9 9 9 10 10 11 11 12 11 12 12 12 12
11 11 10 9 9 8 9 9 8 7 7 8 7 7 7 7 6 6 6 6 5 6 6 6 7 7 8 10 10 10 10 10 9 9 9 10 10 11 11 11 12 12 12 13 13 13 13 14 13
12 11 11 10 10 9 10 10 9 8 8 9 9 8 8 8 7 6 6 6 6 7 7 7 8 8 9 10 11 10 11 11 11 11 11 11 12 12 12 12 13 13 13 14 14 15 15 15 15
12 12 11 11 11 10 10 10 10 9 9 9 9 9 7 7 7 7 7 7 7 8 8 8 8 9 9 10 10 11 11 12 12 12 13 13 13 13 13 13 14 14 15 15 15 16 17 17 16
12 12 12 12 12 11 10 10 10 10 9 10 10 9 9 8 8 8 8 8 8 9 10 10 10 10 10 11 12 12 12 13 13 14 14 15 15 14 15 15 16 16 16 17 17 17 18 17 17
12 12 12 12 13 12 12 12 11 10 10 11 11 10 10 10 10 10 9 9 10 10 10 11 11 11 12 13 13 13 13 14 15 15 15 16 16 16 16 17 17 18 18 18 18 18 19 19 19
12 12 12 12 13 13 13 12 12 11 11 12 12 12 12 12 11 12 12 11 11 11 11 12 12 12 13 13 13 14 15 15 16 16 16 17 17 18 18 18 18 19 19 19 19 20 20 20 20
12 12 12 13 13 13 13 13 12 12 13 13 13 13 13 13 13 13 13 13 13 12 13 13 13 13 14 14 15 16 17 17 16 17 17 17 18 19 19 20 20 20 20 21 21 21 22 22 22
12 12 14 14 14 14 14 13 13 13 13 13 13 14 14 13 13 14 14 14 14 14 14 14 14 13 14 15 16 17 17 18 17 17 18 19 19 20 21 21 22 22 22 22 23 23 23 23 23
12 13 13 14 14 14 14 14 14 14 14 15 15 14 14 14 15 15 16 16 15 15 15 16 15 14 15 16 17 17 18 18 18 18 19 20 21 21 22 23 23 23 23 24 24 24 23 23 23
12 12 13 14 14 14 14 14 14 15 16 16 16 15 16 16 16 16 17 17 16 16 15 16 16 15 16 16 17 18 18 18 18 19 20 21 22 23 23 24 24 24 24 24 24 24 24 24 25
11 11 12 14 15 14 14 15 15 16 16 16 17 17 17 17 17 16 16 16 16 16 16 17 17 17 17 17 18 18 18 19 19 20 21 22 23 24 24 24 24 24 25 25 25 24 25 25 26
10 11 12 13 14 14 14 15 15 15 16 16 17 17 17 17 17 17 16 16 16 16 17 17 17 18 17 18 18 19 19 20 20 21 22 24 24 24 24 24 25 25 25 24 25 25 26 26 26
10 10 12 14 14 14 15 15 15 16 16 16 16 16 16 16 17 17 17 17 17 17 17 18 17 17 18 18 18 19 20 21 21 22 23 24 24 25 26 25 25 25 24 25 25 25 26 27 27
9 10 11 14 14 13 13 14 16 16 16 17 17 17 17 17 17 18 18 18 18 18 18 18 17 17 18 18 19 20 20 21 22 23 23 24 25 25 25 25 25 25 25 24 25 25 26 26 27
9 10 11 14 14 14 14 15 17 17 18 18 18 18 18 18 18 19 19 19 19 19 19 19 19 19 19 19 20 21 21 22 22 23 24 24 24 24 24 25 24 24 24 24 24 25 26 26 27
10 11 12 13 15 16 16 16 18 18 18 18 18 18 18 18 19 19 19 20 19 19 20 20 20 21 20 20 21 22 22 23 22 23 23 24 24 24 25 24 24 24 24 24 25 25 25 25 25
11 11 13 14 16 17 17 18 18 19 19 19 19 18 18 19 19 19 20 20 20 20 20 20 20 21 20 20 21 22 23 23 23 23 24 24 24 25 25 24 24 24 24 25 25 25 24 24 25
12 13 14 15 16 17 18 18 18 19 19 19 19 19 20 20 20 20 20 20 20 19 19 20 21 21 21 21 22 23 23 24 24 24 25 25 24 24 24 24 24 23 23 23 23 23 23 23 23
13 14 15 16 16 16 17 17 17 18 19 19 19 20 20 20 19 20 20 21 20 20 20 21 21 21 22 23 24 23 23 24 24 24 24 24 24 24 24 23 22 23 23 23 23 23 24 24 24
13 15 16 17 17 16 17 16 17 18 19 20 20 20 20 19 20 20 21 21 20 21 21 21 21 22 23 23 23 23 23 23 24 24 24 24 24 23 23 23 23 23 23 23 24 24 24 25 25
15 17 17 17 18 18 18 18 17 18 19 20 20 20 19 19 20 21 21 20 20 21 21 21 21 23 24 24 23 23 24 24 24 25 25 24 24 24 24 24 23 23 23 23 23 24 24 24 23
18 18 18 18 18 18 19 19 18 19 20 19 19 19 19 20 20 20 20 20 20 21 21 22 22 23 24 25 24 25 24 24 24 24 24 23 24 24 24 24 24 24 24 24 24 23 23 23 23
18 17 17 17 17 18 19 19 19 20 19 18 18 19 19 19 20 20 20 20 20 20 21 21 22 22 23 24 24 25 25 24 24 24 22 22 23 23 24 24 25 25 25 25 24 23 23 23 23
19 18 18 18 17 18 19 18 18 19 18 18 18 18 19 19 20 20 19 19 20 20 21 21 21 22 23 24 25 24 24 23 23 23 22 21 22 23 24 25 25 25 25 24 23 24 23 24 24
21 20 19 20 20 20 19 18 19 20 19 19 18 18 18 19 20 20 19 19 20 20 20 21 22 22 23 24 24 24 23 22 22 22 22 21 21 22 24 24 24 24 23 22 22 22 23 24 24
21 21 21 20 20 20 19 18 18 20 19 19 20 19 19 18 18 19 19 19 20 20 20 21 22 22 23 23 23 23 23 22 22 22 22 21 21 22 22 24 23 22 22 21 22 22 23 24 24
21 20 21 21 21 20 20 18 19 19 18 18 19 19 19 19 18 18 18 19 19 20 21 21 21 21 21 21 22 22 21 21 21 21 21 21 21 21 22 22 21 21 22 22 21 22 22 23 23
22 22 22 22 22 22 23 21 20 18 18 18 18 18 18 18 19 18 18 18 19 19 20 20 20 20 20 20 20 20 19 19 19 20 19 20 20 21 22 21 21 21 21 21 21 21 23 23 22

GEFSSGP_500_meanwind_204.txt.gz
Wind_Speed
7 6 5 5 3 2 0 4 8 9 11 11 10 10 9 9 8 9 9 10 9 9 10 10 10 10 10 10 11 11 11 10 10 11 11 12 12 12 11 11 10 11 11 11 11 11 11 11 12
8 7 6 5 4 2 3 8 10 10 12 12 11 11 10 11 9 10 10 10 10 10 10 10 10 11 11 12 11 12 12 11 11 12 12 12 13 13 13 12 12 12 12 12 12 12 12 13 13
8 8 7 6 5 3 6 9 10 12 12 12 12 12 12 12 11 11 11 11 10 11 11 11 11 11 11 12 12 12 13 13 13 14 14 13 14 14 14 14 14 13 13 13 13 13 14 14 14
9 8 6 5 4 4 9 10 9 12 13 13 13 13 12 13 13 12 11 12 11 12 12 12 11 12 12 12 13 13 13 14 14 14 15 15 15 15 15 15 15 15 14 14 14 15 15 15 15
8 8 6 5 5 7 10 10 11 10 13 13 14 14 12 13 14 13 12 13 12 12 12 12 12 13 13 13 13 13 14 14 14 15 16 17 17 16 16 16 16 16 16 15 16 16 16 16 16
8 8 6 5 6 9 13 12 11 12 11 12 14 15 13 13 13 14 13 13 13 13 13 13 13 13 13 13 13 14 15 15 15 16 17 17 18 17 17 17 17 17 17 17 17 17 17 17 17
9 8 6 5 6 9 14 13 12 13 12 12 13 15 14 14 14 14 15 15 15 14 14 15 14 14 15 15 15 15 16 17 16 17 17 18 18 18 18 18 18 19 19 19 18 19 18 19 18
9 8 7 5 7 10 14 14 14 14 14 12 13 14 14 14 14 15 15 15 15 15 15 15 15 15 16 16 16 17 18 18 17 18 18 19 19 19 19 19 19 19 19 20 20 20 20 20 20
9 7 5 4 7 12 13 13 14 15 15 15 16 16 17 17 16 15 16 16 16 16 16 16 16 16 16 16 17 17 18 18 18 19 19 20 20 21 20 20 20 20 21 21 21 21 21 21 21
8 6 5 7 11 14 13 13 14 14 15 15 17 17 18 18 17 16 16 16 17 17 17 17 17 17 16 17 17 18 18 18 19 20 20 21 21 21 21 21 21 22 22 22 22 22 22 23 22
6 7 6 10 13 14 13 14 14 14 15 15 16 18 17 18 17 17 17 17 18 18 17 18 18 17 17 18 18 19 20 20 20 20 20 21 21 21 22 22 23 22 23 24 24 24 24 24 24
7 8 9 12 13 14 13 15 15 15 16 16 16 17 19 20 19 19 18 18 18 18 19 19 18 18 18 17 18 19 20 20 20 20 20 21 21 21 23 23 24 25 24 24 25 25 25 25 25
9 10 12 13 12 13 14 15 15 16 17 17 17 18 20 19 20 20 19 20 19 19 19 20 19 19 19 19 19 19 20 19 20 20 21 21 21 22 23 24 25 25 25 26 26 26 26 26 25
7 9 9 9 12 13 14 15 15 15 17 18 18 19 20 20 19 19 20 20 21 21 21 21 19 19 19 20 20 21 21 21 21 22 22 22 23 23 24 24 25 25 26 26 26 25 26 25 25
5 7 7 9 12 13 13 15 14 15 18 19 19 19 20 21 20 20 20 20 20 21 21 21 20 20 20 20 21 22 22 22 22 22 22 23 23 24 24 25 25 25 25 25 26 26 25 25 25
5 6 8 10 13 15 16 16 16 16 19 19 19 19 19 20 20 20 19 18 19 20 20 20 21 20 20 21 22 22 22 23 22 22 23 23 24 25 25 25 26 26 26 26 26 26 26 26 25
7 8 10 11 13 15 17 18 18 17 17 19 20 19 19 19 19 20 20 19 19 19 19 19 20 21 21 21 22 23 22 22 22 23 23 24 25 26 26 26 26 26 26 26 27 26 26 26 25
10 11 12 12 13 16 18 19 19 19 17 18 20 20 20 20 20 20 20 21 20 19 19 19 20 21 22 22 22 22 21 22 23 23 24 25 25 26 26 26 26 26 26 26 26 25 25 25 25
11 13 13 13 15 18 19 20 19 20 18 17 19 21 22 21 21 21 21 21 21 20 20 20 21 22 22 22 21 21 22 23 23 24 25 26 26 26 26 26 26 26 26 26 26 25 25 25 25
12 13 13 15 17 19 20 19 20 19 20 20 20 22 22 22 22 23 22 22 22 21 21 21 21 21 21 22 22 23 23 23 24 25 26 26 26 27 27 26 26 26 26 26 25 26 26 26 25
14 15 15 16 17 18 19 20 20 20 21 21 21 21 23 22 23 24 24 23 22 21 20 20 20 20 21 21 23 24 24 24 24 25 26 26 26 26 27 28 27 27 27 26 25 25 25 25 25
15 16 17 17 17 17 17 20 21 22 21 21 21 22 23 23 23 24 23 22 22 21 20 20 20 20 21 21 23 24 25 25 25 26 26 26 26 27 27 27 27 27 27 27 26 25 25 26 25
16 17 18 17 17 18 17 20 21 22 21 21 23 23 24 24 23 23 23 22 21 21 21 21 21 21 21 22 23 24 25 25 26 25 25 25 26 26 25 26 27 27 27 27 26 26 25 25 25
17 17 17 16 17 19 19 20 21 22 21 22 24 23 24 24 23 23 22 22 22 21 21 21 21 22 22 23 24 25 25 25 26 26 25 26 26 26 25 25 25 26 26 25 25 25 25 24 24
17 17 18 17 16 18 18 19 20 22 23 22 25 25 25 25 24 22 22 22 22 22 21 22 22 23 23 23 24 25 25 25 25 25 26 26 25 25 24 24 24 25 26 26 26 25 24 24 24
18 18 19 20 20 20 19 20 20 20 24 23 23 24 23 23 23 23 23 22 22 22 22 22 22 22 23 24 24 23 24 24 25 25 26 26 26 25 23 24 24 24 25 25 25 25 24 24 24
20 20 19 22 21 21 20 20 19 22 24 23 22 22 22 23 24 24 24 22 21 21 22 22 22 21 22 22 22 23 24 24 24 24 25 24 24 23 23 23 23 23 24 24 24 24 24 24 24
19 20 22 21 21 21 19 19 19 23 25 24 22 22 22 23 24 25 24 21 21 21 21 22 21 21 21 22 22 22 23 23 23 23 22 22 22 23 23 23 24 23 23 23 24 24 23 24 25
19 20 20 22 22 21 20 19 20 23 24 24 24 22 21 22 24 24 22 21 20 21 20 21 21 21 21 21 21 21 22 22 22 21 20 21 22 23 23 23 23 23 23 23 23 24 24 24 25
20 20 20 22 22 22 23 23 22 22 22 23 24 22 21 21 23 23 21 21 21 20 20 20 19 19 20 21 21 20 21 21 20 19 20 21 21 22 22 22 22 23 23 24 24 24 24 24 24

GEFSSGP_500_meanwind_210.txt.gz
Wind_Speed
9 8 7 7 6 5 3 2 2 3 4 5 7 8 9 9 9 9 8 8 8 7 8 8 8 9 9 9 10 11 11 11 11 12 12 13 14 14 14 15 16 16 16 16 15 15 15 14 14
9 9 8 8 8 7 4 3 3 5 5 6 8 10 11 12 11 10 10 8 8 8 8 9 9 10 10 10 11 11 12 12 12 13 13 14 14 15 15 16 16 16 16 16 15 15 16 15 15
9 9 9 9 9 8 5 4 3 4 7 7 9 11 12 12 11 10 10 10 10 9 8 9 9 10 11 11 12 12 13 13 13 13 14 14 15 15 16 16 16 16 16 16 15 15 16 16 16
9 10 10 10 9 8 6 4 4 5 7 9 11 12 13 13 11 11 11 11 10 9 10 10 11 11 12 12 12 13 13 13 13 14 14 15 15 16 16 16 17 16 16 16 16 16 17 17 17
9 10 10 10 9 7 6 4 5 6 8 11 12 12 13 12 12 11 12 12 10 10 11 11 11 12 12 13 13 13 14 14 14 15 15 16 16 17 17 17 17 17 17 17 17 18 18 18 17
9 9 9 10 9 6 4 4 6 6 9 11 12 12 12 12 12 11 11 12 12 11 12 12 12 12 12 13 14 14 14 14 15 16 17 17 17 17 17 17 17 17 18 18 18 19 19 19 18
9 10 10 10 9 6 5 5 8 8 9 11 12 12 12 12 12 10 10 11 12 12 12 13 13 13 14 14 15 14 14 15 15 16 17 17 17 17 17 18 18 18 18 19 19 19 19 19 19
9 10 11 9 8 5 4 5 7 9 8 11 12 13 13 13 12 12 12 12 12 13 13 13 13 14 15 15 16 16 15 16 16 16 17 17 17 17 17 17 17 18 18 19 20 20 20 20 20
8 8 9 9 9 6 6 5 7 10 10 12 13 14 15 15 15 15 14 13 13 13 15 15 14 14 15 15 15 15 15 16 16 17 18 18 17 17 17 17 18 19 19 20 20 20 21 21 21
8 7 6 8 9 7 7 7 9 11 12 14 15 16 16 17 17 16 14 14 14 15 15 16 16 15 15 15 15 15 15 16 16 17 17 17 17 16 17 17 18 19 20 20 20 20 21 22 22
6 6 7 7 7 7 9 9 11 12 14 15 17 18 18 18 17 17 16 15 15 15 16 16 16 17 16 16 15 15 16 16 16 16 16 16 16 17 18 18 19 20 20 21 21 21 22 22 22
5 6 7 7 8 9 11 12 12 13 14 14 16 18 20 20 19 18 17 16 17 17 17 17 17 18 18 16 15 16 16 16 16 17 17 17 18 18 19 19 19 20 20 21 21 22 22 23 23
5 6 7 8 9 10 12 14 15 14 15 17 18 19 19 19 19 19 18 18 19 18 17 17 17 17 17 17 16 16 16 16 16 17 18 18 18 18 19 19 19 20 20 21 21 21 22 22 22
5 5 5 6 10 11 12 14 15 16 16 17 18 19 18 18 18 19 20 20 19 19 19 18 17 17 17 17 17 16 17 18 19 20 19 18 18 19 19 19 18 19 20 20 21 22 22 21 21
3 4 5 7 10 11 14 15 16 17 17 18 19 19 18 19 19 19 20 20 20 20 20 19 17 16 16 17 17 18 18 18 19 19 19 19 19 19 19 19 19 20 20 20 21 21 21 21 21
4 5 6 8 10 12 15 16 16 18 18 18 19 19 19 18 19 19 20 20 21 21 21 19 17 17 17 17 17 18 18 18 18 19 19 20 20 20 20 20 20 20 20 20 20 21 21 21 21
5 6 8 8 10 12 14 16 15 16 16 17 19 19 19 20 20 20 20 20 20 20 20 18 18 17 17 17 18 19 18 18 19 19 19 20 20 20 21 20 19 20 20 20 21 22 22 22 22
7 7 8 9 11 13 15 15 15 14 15 17 18 20 20 20 18 19 20 20 20 18 19 19 19 19 18 18 18 19 19 20 19 19 19 20 21 21 21 20 20 21 21 21 22 22 23 23 22
10 10 10 11 14 16 16 15 15 16 17 19 20 21 19 18 18 19 20 20 20 19 19 19 19 18 18 18 18 18 19 20 20 20 20 20 21 20 21 22 22 22 22 22 23 24 24 24 23
14 14 13 12 14 17 17 17 17 17 19 21 21 22 21 20 19 19 20 20 20 20 19 20 19 18 18 19 19 19 19 20 21 21 20 21 20 21 21 22 23 23 23 24 24 24 24 23 23
14 15 15 16 16 17 18 18 18 19 20 22 23 22 21 21 20 20 20 20 21 20 20 20 20 19 18 18 19 19 20 20 20 21 21 22 22 22 22 21 22 23 24 24 24 24 23 23 23
16 16 17 17 18 18 18 20 20 21 22 23 22 21 21 22 22 21 20 20 20 20 20 21 20 20 19 19 18 19 20 20 20 20 21 22 21 21 20 21 22 23 23 23 23 23 22 22 23
17 18 18 18 19 19 20 21 21 21 21 21 21 21 22 23 23 23 21 20 20 21 21 21 21 21 19 19 19 20 19 19 19 19 20 21 21 21 20 21 23 23 23 23 23 23 22 22 22
18 19 19 19 19 20 20 20 20 21 21 20 20 20 22 22 22 22 20 21 22 21 21 21 21 21 20 19 19 19 19 19 20 20 21 21 21 21 20 21 22 22 22 21 22 22 22 22 22
20 21 21 19 19 19 20 20 19 20 20 19 20 21 21 22 22 21 20 21 20 20 21 21 21 21 20 20 20 19 20 20 21 21 22 21 21 21 21 21 21 21 21 21 21 21 22 22 22
22 22 22 22 22 20 19 20 19 19 19 19 19 20 20 21 22 22 22 21 20 20 20 21 21 21 21 21 21 21 22 21 21 22 21 21 20 20 21 22 21 21 20 21 22 22 22 22 22
22 21 22 22 23 22 20 20 18 17 18 18 17 17 18 19 20 20 20 20 21 21 19 19 20 21 20 21 22 22 22 21 21 21 21 21 20 19 20 21 22 21 21 21 22 22 22 23 23
21 21 21 21 22 22 20 20 18 17 18 18 18 19 20 21 21 20 19 19 20 18 17 18 19 20 20 21 21 22 23 22 20 20 20 21 20 20 20 21 21 21 22 23 23 22 23 23 23
20 20 21 20 20 21 21 19 19 18 17 19 20 21 21 22 21 22 21 21 20 18 17 18 18 19 20 20 21 22 22 20 19 19 19 18 19 19 20 20 20 21 22 23 22 22 22 23 22
20 20 20 21 20 20 21 20 19 19 19 20 19 20 21 22 21 21 20 19 19 18 16 16 17 18 19 20 20 20 19 18 17 17 17 17 18 19 19 19 20 21 21 21 21 22 22 23 23

GEFSSGP_500_meanwind_216.txt.gz
Wind_Speed
7 7 7 8 8 7 6 5 5 4 5 5 5 6 6 6 7 8 8 9 10 10 10 9 9 9 9 9 9 9 10 10 10 10 11 12 12 12 13 13 13 13 14 14 14 14 14 14 14
7 8 8 8 8 7 6 6 6 5 5 6 6 7 8 8 9 9 9 9 10 10 10 9 10 9 10 10 9 10 10 11 11 11 12 12 13 13 13 14 14 15 15 15 15 15 15 15 15
8 8 9 8 8 7 6 6 7 6 6 6 7 7 8 10 11 10 10 10 10 10 10 10 9 9 10 10 11 11 11 12 12 13 13 13 13 13 14 14 15 15 16 16 16 16 17 17 16
9 9 9 9 8 7 7 7 7 8 7 7 7 7 8 10 11 11 12 11 11 11 10 10 10 10 10 10 10 11 11 12 12 13 13 13 14 14 15 16 16 16 16 17 17 18 17 18 18
8 9 8 8 9 8 8 8 8 8 9 8 8 8 9 9 11 12 12 12 12 12 11 12 11 11 11 12 11 12 12 13 13 13 13 14 14 15 16 16 16 16 17 17 17 18 18 19 19
7 7 7 7 9 9 9 9 10 10 10 8 8 9 9 10 11 12 13 13 12 12 12 12 12 11 11 12 12 13 13 13 13 13 14 15 15 16 17 17 17 17 17 18 18 19 19 19 19
7 8 7 8 9 10 10 10 10 10 11 9 9 9 9 10 12 12 13 13 12 12 12 12 12 12 12 12 13 14 14 14 14 14 14 15 16 16 17 17 17 17 18 18 18 19 20 20 20
7 7 8 9 10 9 10 11 11 11 11 10 10 10 10 11 12 12 13 13 12 12 13 13 13 13 13 14 14 14 14 15 15 15 15 16 16 17 17 17 18 18 19 19 19 20 20 21 21
6 6 7 8 8 9 11 11 12 12 11 10 10 10 11 12 12 13 13 12 13 13 13 14 14 14 14 15 16 16 15 15 15 16 16 16 17 18 18 18 18 18 19 20 20 21 21 21 21
5 6 7 8 8 9 10 11 12 13 12 11 11 12 13 13 14 14 14 14 13 13 14 14 15 15 15 16 17 17 17 17 16 16 16 17 17 18 19 19 20 19 19 20 21 21 21 22 22
5 7 7 9 9 10 11 12 13 14 12 13 13 13 15 15 15 15 15 14 13 14 15 15 15 16 17 18 18 18 18 18 17 17 17 18 19 19 19 19 20 20 20 20 20 21 21 22 22
5 7 8 9 10 11 11 12 13 13 13 14 15 15 17 16 17 17 16 15 15 15 16 16 17 18 19 19 18 19 18 18 18 18 18 18 20 20 19 19 20 20 20 21 21 21 22 22 22
6 8 8 9 11 12 12 13 14 14 15 16 16 16 17 18 18 17 17 17 17 16 17 17 18 19 20 20 19 19 19 19 18 18 19 20 20 19 19 19 19 19 20 21 21 21 21 21 21
6 8 9 11 12 13 13 13 14 16 18 18 16 16 18 19 20 19 19 20 19 17 18 18 18 19 20 20 20 20 20 20 19 20 20 20 20 19 19 19 20 20 20 20 21 21 21 21 21
8 9 10 11 13 14 14 15 16 17 18 18 17 17 18 19 19 20 20 21 20 19 19 19 19 20 20 20 21 21 20 20 19 19 19 19 19 19 19 20 21 20 21 21 21 21 21 22 22
9 10 12 12 14 15 16 16 17 18 18 18 18 18 19 19 19 20 20 20 20 19 20 20 21 21 20 21 21 21 20 20 19 19 19 19 19 19 20 21 21 21 22 22 22 22 22 22 23
11 12 13 14 15 16 17 17 18 18 19 18 18 19 19 19 20 21 20 21 21 20 20 21 21 20 20 20 21 21 20 20 19 19 19 19 19 20 21 22 22 22 21 22 23 23 23 23 23
12 14 14 16 17 18 18 18 18 18 19 19 20 20 20 20 20 21 21 21 21 21 21 21 20 20 20 20 21 22 20 19 19 19 20 20 20 20 21 22 22 22 21 22 22 23 24 24 24
15 16 17 18 19 19 19 19 19 19 19 19 21 21 21 21 21 21 21 21 21 21 21 21 21 20 21 22 22 21 20 19 19 19 20 20 21 21 21 22 22 22 22 22 22 23 24 24 24
16 18 18 19 20 21 21 21 21 21 22 22 20 20 20 20 21 21 21 20 21 21 22 21 21 20 20 20 20 20 19 19 19 19 19 21 21 21 21 21 22 22 22 22 22 23 24 24 25
17 18 19 20 20 21 22 20 21 22 22 21 21 20 20 20 20 20 20 20 21 22 21 20 20 18 18 18 19 18 18 18 18 19 19 20 20 21 21 21 21 21 21 22 24 24 24 24 25
18 19 21 21 21 22 23 23 21 22 23 23 22 21 20 20 20 20 21 22 22 22 20 19 19 19 19 19 19 18 18 19 19 20 21 21 20 21 21 22 22 21 22 23 23 24 24 24 24
20 21 22 22 22 23 24 25 22 22 23 23 22 21 22 22 22 22 22 22 23 22 21 19 20 20 19 19 20 20 20 19 19 21 21 22 22 22 22 21 21 22 23 24 24 24 24 24 24
22 23 24 24 23 24 24 24 22 22 22 22 21 20 21 22 22 22 22 23 23 22 21 20 20 20 20 20 20 21 20 20 20 21 21 22 21 21 21 21 21 22 23 23 23 23 24 24 23
23 24 25 26 25 24 22 23 22 22 22 22 21 21 21 21 21 22 23 22 22 22 21 20 20 20 20 20 21 21 21 22 22 22 22 22 22 22 22 22 22 22 22 23 23 23 24 24 24
24 25 26 27 27 25 22 21 21 22 22 22 21 20 20 19 19 21 22 21 21 21 20 20 20 21 21 21 21 21 21 22 22 22 23 23 22 22 22 22 22 22 23 23 23 23 23 23 23
24 24 25 26 25 24 22 21 21 21 22 22 21 20 20 20 19 20 20 20 20 20 19 20 21 21 20 21 21 21 21 21 21 22 22 21 21 22 22 22 22 23 23 23 23 23 22 22 23
23 24 24 23 23 21 20 20 21 21 21 20 21 20 20 19 19 19 19 18 19 19 19 19 19 19 20 20 20 20 20 20 21 20 20 21 21 22 22 21 22 23 23 23 23 22 22 22 23
22 22 22 21 20 20 19 19 20 21 21 21 21 21 20 20 20 19 18 18 18 18 18 18 18 18 18 19 20 19 19 20 20 20 20 20 21 21 22 21 22 22 22 22 23 22 22 23 24
21 20 20 19 19 19 19 18 18 19 21 21 21 20 21 20 20 20 19 18 18 17 17 17 17 18 18 17 18 18 18 19 20 20 20 20 21 21 21 21 21 22 22 22 22 22 23 24 25

GEFSSGP_500_meanwind_222.txt.gz
Wind_Speed
3 3 3 2 2 2 3 5 6 6 6 7 6 6 6 6 6 7 8 7 7 7 7 7 6 6 6 6 8 8 8 8 8 8 7 8 8 8 7 8 8 8 8 8 8 8 8 9 9
4 3 4 3 3 4 5 6 7 7 6 7 7 7 7 7 7 8 9 9 8 7 8 8 7 7 8 8 8 8 9 9 8 8 9 9 9 9 8 8 8 8 8 9 9 9 9 9 10
4 4 4 4 4 5 6 7 7 7 7 8 8 8 8 8 8 9 9 9 9 8 8 9 8 9 9 9 9 9 10 10 10 9 10 10 10 9 9 10 10 9 10 10 10 10 11 11 11
4 4 4 4 6 6 7 8 8 8 8 9 9 9 9 8 9 9 9 10 10 10 10 10 9 9 10 10 10 10 10 11 11 11 11 10 10 10 11 11 10 10 11 11 12 12 12 12 13
4 4 3 4 6 7 8 9 9 9 10 10 11 10 9 9 9 9 9 10 10 10 10 10 10 10 11 10 10 10 10 11 11 11 11 11 12 12 12 12 11 11 12 12 12 13 13 14 14
4 3 3 5 6 8 9 9 10 10 10 11 11 11 10 9 10 10 9 10 10 9 10 10 9 9 10 10 10 10 10 10 11 11 11 11 12 12 12 12 12 12 12 12 13 13 14 14 15
4 3 3 5 7 8 9 10 11 11 11 11 12 12 11 10 10 10 10 10 10 9 10 10 11 10 11 11 11 11 11 11 11 12 12 12 12 13 13 13 13 13 13 14 14 15 15 15 16
3 3 4 6 6 8 10 11 12 12 12 12 13 12 12 11 11 11 11 10 10 10 11 12 13 13 13 13 13 13 13 13 13 12 13 13 13 14 14 14 15 15 15 15 15 16 16 17 17
3 2 4 6 6 8 10 11 13 13 13 13 13 13 13 13 12 11 11 11 11 11 12 14 14 14 14 14 15 15 15 14 14 14 14 14 14 15 14 15 15 15 15 16 16 16 17 17 18
3 3 5 6 7 8 10 12 13 13 13 13 13 13 14 14 13 12 13 13 13 13 14 15 15 15 15 16 16 17 16 16 16 16 16 16 16 16 15 15 14 15 16 17 18 18 18 18 19
3 4 5 6 8 9 11 12 13 14 13 13 14 14 14 14 14 13 14 14 14 14 14 15 16 16 17 18 18 18 18 18 18 18 18 18 18 18 17 16 15 16 17 18 19 20 20 19 19
3 4 6 7 9 11 12 14 14 15 15 15 14 14 15 15 15 15 14 15 15 15 15 17 17 17 18 19 20 19 19 19 19 19 19 19 18 18 18 17 16 16 17 18 19 20 20 18 18
4 5 7 8 10 12 13 13 14 16 16 16 16 16 16 16 15 16 16 16 17 17 17 18 19 19 19 20 21 21 21 21 20 20 20 20 20 19 18 18 18 18 18 19 19 19 19 18 18
5 6 8 9 11 13 13 14 15 16 16 17 17 17 17 17 16 16 17 17 17 18 18 19 21 21 21 22 22 21 21 22 22 21 22 21 21 20 19 19 19 19 19 19 19 20 19 19 19
6 7 9 11 12 14 15 14 15 17 17 18 18 18 17 18 17 18 18 18 18 19 20 20 21 21 22 22 22 21 22 22 22 22 22 21 21 21 20 19 18 19 19 19 20 20 20 20 20
8 9 10 12 13 14 15 15 16 17 17 18 18 18 18 18 18 18 19 19 19 20 21 21 21 22 23 24 24 24 23 22 23 23 22 21 21 20 19 19 19 20 20 20 21 21 21 21 21
9 11 12 14 15 16 16 16 17 17 18 19 19 19 19 19 19 19 20 20 21 22 22 22 23 23 25 25 24 24 23 23 23 22 21 21 21 21 20 20 20 20 21 21 21 21 22 23 23
11 13 14 16 17 17 17 17 18 18 18 19 19 19 19 19 19 20 21 22 22 22 23 23 24 25 25 24 23 24 24 24 24 23 21 20 20 20 20 20 21 22 22 22 22 22 23 23 23
13 15 16 17 18 18 18 18 20 20 19 20 21 20 20 19 20 21 21 21 22 23 23 24 25 25 24 24 24 24 23 24 24 22 20 20 21 21 21 21 21 22 22 23 23 23 23 23 23
15 16 17 17 18 19 19 19 20 21 20 21 20 21 21 21 21 21 22 22 22 22 24 25 25 26 25 25 25 25 25 24 23 22 20 19 20 21 22 21 21 22 22 23 23 24 23 23 24
16 16 17 18 19 20 21 20 21 21 21 21 21 21 22 21 21 22 22 21 22 24 26 26 25 25 25 24 23 22 23 22 22 20 20 21 21 22 22 22 24 24 24 24 23 23 23 23 24
18 18 19 20 20 20 21 20 22 22 21 21 22 22 21 21 22 22 22 22 23 24 25 25 25 25 25 24 23 22 21 21 21 20 20 20 21 22 23 23 23 24 24 23 23 23 23 24 24
18 19 20 20 21 21 21 20 20 20 21 21 21 21 21 21 21 21 21 22 22 24 24 24 24 24 24 23 22 21 20 20 20 20 20 20 21 22 23 22 22 23 23 22 22 22 23 23 24
19 20 20 21 21 20 20 18 19 18 20 20 20 20 20 20 20 20 20 21 21 21 22 22 22 22 22 21 20 20 20 21 20 20 20 20 20 21 21 21 22 22 22 21 22 23 23 24 24
18 19 19 18 17 17 19 19 19 19 20 20 20 20 19 19 19 18 19 18 17 17 18 19 19 20 19 19 19 18 19 19 19 19 19 20 20 19 19 20 21 21 21 22 22 22 22 23 23
18 18 18 18 17 17 19 18 20 21 20 19 20 20 19 18 16 16 16 15 15 15 16 17 17 18 17 18 18 19 19 19 19 19 20 20 20 20 20 20 20 21 21 22 22 22 22 22 23
18 17 17 18 18 17 17 18 20 20 19 18 19 19 18 16 15 15 16 16 16 16 17 16 16 16 16 16 17 18 18 19 19 19 20 19 20 20 20 20 21 21 21 22 23 22 22 22 23
18 17 17 16 16 16 15 15 16 18 17 17 17 17 15 15 14 14 16 16 16 16 16 16 15 15 14 14 15 16 16 16 17 19 19 19 20 21 21 21 21 21 21 22 22 22 22 23 23
16 16 16 15 14 14 14 15 16 17 17 17 17 16 14 15 15 15 15 15 15 15 15 14 14 14 14 13 14 15 15 15 16 17 18 19 20 20 21 20 20 22 22 22 22 23 23 23 23
15 14 14 13 13 14 14 15 16 16 16 16 16 16 14 14 14 14 15 15 15 15 14 14 13 13 13 13 13 14 14 15 15 16 18 18 18 19 19 18 19 20 21 22 23 23 23 23 24

GEFSSGP_500_meanwind_228.txt.gz
Wind_Speed
4 3 2 2 2 3 1 4 7 8 8 8 9 10 11 11 11 12 13 13 11 10 10 10 10 11 11 11 10 10 10 10 10 10 10 10 11 11 11 11 11 11 11 10 10 10 10 10 10
4 3 2 2 2 1 3 4 7 9 9 9 9 11 11 11 12 13 14 13 13 12 11 11 10 10 10 10 10 10 10 10 10 11 11 11 11 11 11 11 11 12 12 11 11 11 11 11 11
4 3 2 1 0 2 6 6 7 10 10 10 10 11 12 12 12 13 14 14 14 12 12 11 10 10 10 10 11 11 11 11 11 11 11 11 11 11 11 11 11 12 12 12 12 11 12 12 12
5 3 2 1 1 5 8 8 8 9 11 11 11 12 13 13 14 14 14 14 14 13 13 13 12 11 10 10 10 11 11 12 11 11 11 11 12 12 13 12 12 12 12 12 12 12 12 12 13
5 4 1 2 4 6 9 8 8 9 11 12 13 13 13 14 16 15 15 15 15 14 14 14 13 12 11 11 11 12 12 12 12 12 12 12 13 13 14 13 13 13 13 13 14 13 13 13 14
5 3 1 4 8 9 10 11 10 11 11 13 14 14 14 16 16 16 17 17 17 15 14 14 14 13 13 13 12 12 13 13 13 13 13 14 14 15 15 15 13 14 14 13 13 13 14 14 14
4 3 1 5 8 10 11 12 13 14 13 13 14 14 14 15 16 17 17 17 17 18 16 14 14 13 13 13 13 14 14 14 14 15 15 16 16 16 16 16 16 14 14 14 14 14 14 15 15
4 3 1 5 8 12 13 12 14 14 14 14 14 15 16 15 15 16 16 17 17 17 17 14 14 14 14 15 15 15 15 16 17 16 17 17 17 17 16 16 16 16 15 15 15 15 15 16 16
3 2 1 5 10 12 13 14 15 16 16 16 16 18 17 16 15 17 16 17 16 17 17 16 16 16 16 16 16 17 16 17 18 17 18 19 18 18 16 16 16 16 15 15 15 15 15 16 17
3 1 4 8 10 12 13 15 16 17 18 17 17 18 18 17 17 19 18 18 17 18 19 18 17 18 17 18 18 19 18 18 18 18 18 19 19 18 18 18 17 16 16 16 16 16 16 16 17
1 3 7 9 11 11 13 14 15 18 18 16 17 18 18 18 18 19 19 19 18 18 19 19 19 19 19 19 19 20 19 19 19 19 19 19 19 18 18 19 18 18 17 17 17 16 16 17 17
4 6 9 11 11 11 13 15 16 17 17 17 18 18 18 18 19 19 18 18 19 19 20 18 19 19 20 20 20 20 20 20 20 20 21 20 19 19 19 20 20 19 18 18 18 17 17 17 18
5 7 10 12 12 14 15 15 16 17 17 17 17 17 18 19 21 19 18 18 19 20 20 19 21 21 21 21 22 21 21 21 22 23 23 23 23 21 22 21 21 20 19 19 18 19 19 18 18
5 8 9 11 14 16 16 15 17 17 17 17 17 18 19 20 20 19 18 18 19 19 20 20 21 21 21 22 22 22 23 24 24 24 24 24 24 23 23 21 21 20 20 20 19 20 20 19 19
5 7 10 12 14 16 17 17 16 16 17 17 19 18 19 21 19 19 18 18 18 19 19 20 20 21 21 22 22 22 23 23 23 23 24 25 24 23 22 21 21 21 20 20 19 20 20 20 20
6 8 11 12 14 17 18 18 19 18 19 20 21 21 20 20 19 19 19 19 19 20 19 21 22 22 22 22 22 22 23 23 23 24 24 24 23 23 23 22 21 21 21 20 20 21 21 21 21
7 10 11 13 14 17 17 17 19 18 20 21 22 21 21 20 20 20 21 20 20 21 21 22 23 23 23 23 22 23 23 24 25 26 25 25 24 24 24 23 22 22 21 21 21 22 23 23 22
9 11 12 13 14 16 18 18 19 18 19 21 23 22 23 22 21 22 23 23 22 23 23 23 24 25 24 24 24 24 25 25 26 27 27 26 24 25 24 23 23 22 22 22 23 23 23 23 23
12 13 14 14 15 16 18 18 19 20 20 22 23 23 23 23 23 24 24 23 23 23 24 24 25 25 25 25 26 26 26 26 26 27 27 26 25 24 24 23 22 22 22 23 23 23 23 23 24
15 15 16 16 17 17 19 20 19 21 21 23 24 23 24 25 25 25 25 24 23 23 24 25 25 26 25 25 26 26 27 26 26 26 26 26 25 24 24 22 22 23 23 23 23 24 24 24 24
14 16 17 17 17 18 20 20 20 21 22 23 24 25 26 26 26 26 25 23 23 24 24 25 25 25 25 25 25 25 25 25 25 24 25 24 24 24 23 23 23 24 24 24 25 25 25 25 25
15 16 16 17 16 16 16 18 20 21 21 23 23 24 26 25 25 25 24 24 24 24 24 24 24 24 24 24 24 24 24 24 24 24 23 22 22 23 23 23 24 24 24 25 24 24 25 26 25
15 15 14 14 14 13 14 17 18 21 22 23 25 25 24 24 25 24 23 23 24 23 23 23 22 22 22 22 22 23 23 23 23 22 22 22 22 21 21 20 20 21 22 23 23 23 24 25 25
14 14 14 14 14 14 14 15 19 22 21 23 24 24 23 24 23 22 22 23 22 21 21 20 20 19 19 20 21 22 22 22 22 21 21 21 21 21 19 19 20 20 21 22 23 23 23 24 24
13 13 13 13 12 14 15 16 20 22 21 23 23 22 22 22 21 21 21 20 20 19 18 18 18 18 18 19 20 20 21 22 21 20 20 21 21 20 19 19 20 21 22 22 22 21 22 22 23
13 13 12 13 13 14 13 16 20 21 21 22 21 21 22 22 22 22 21 19 18 18 17 16 17 17 18 19 19 19 20 19 18 18 19 19 20 20 20 20 20 21 22 22 22 22 22 23 24
13 13 12 13 13 13 14 16 18 18 20 21 21 21 21 22 21 21 20 18 18 17 16 16 16 17 18 19 19 19 17 17 17 17 17 18 19 20 20 20 21 21 22 22 22 22 23 24 24
13 13 12 12 13 13 14 16 18 20 21 21 22 22 22 21 20 19 19 18 18 17 16 16 16 17 18 19 18 17 16 16 17 18 18 18 18 18 18 19 20 20 20 21 21 22 22 24 24
13 12 12 13 13 14 15 17 18 20 20 21 22 22 21 21 20 19 19 19 18 17 17 17 17 17 17 16 16 16 16 16 17 17 17 16 16 16 17 18 18 19 19 20 20 20 21 22 23
13 12 13 14 14 14 16 17 18 19 20 20 21 21 21 21 20 18 19 19 18 17 17 17 17 16 16 16 15 15 15 16 16 16 15 15 15 17 17 18 18 18 18 18 19 20 21 22 22

GEFSSGP_500_meanwind_234.txt.gz
Wind_Speed
7 6 6 5 3 1 0 1 2 4 6 8 8 9 10 11 10 11 11 11 11 11 11 12 11 10 11 11 11 11 10 11 11 10 10 10 10 11 11 12 12 12 13 13 13 13 13 13 13
7 6 6 6 4 2 1 2 4 6 8 9 10 11 12 12 12 12 13 12 11 11 11 11 11 10 10 10 10 10 10 11 11 10 10 11 11 11 12 12 12 12 13 14 14 14 14 14 14
7 6 5 6 5 3 2 3 5 7 9 10 11 12 13 13 13 13 13 13 12 11 11 11 11 11 10 10 10 10 11 11 11 11 11 11 12 12 12 12 12 13 13 14 14 14 15 15 15
6 6 6 5 4 2 3 5 6 7 9 11 12 13 14 14 14 14 14 14 13 12 12 12 11 11 11 11 11 11 11 11 11 11 12 12 13 13 13 13 13 14 14 14 14 14 15 16 16
7 6 5 5 4 4 5 7 9 10 10 12 14 15 15 16 15 15 16 15 14 13 13 13 12 12 11 12 12 13 13 13 12 12 13 13 14 14 15 14 14 14 14 15 15 15 15 16 16
7 7 6 5 3 4 6 8 10 11 12 13 15 16 17 17 16 15 16 16 16 15 14 14 12 11 11 12 13 14 14 14 14 14 14 14 15 16 16 15 15 15 15 15 15 15 15 15 16
8 7 6 3 2 3 6 10 12 13 13 15 16 17 16 16 16 16 15 14 15 16 16 15 14 14 12 12 13 14 14 14 14 15 15 14 15 15 15 15 16 16 16 16 16 16 16 16 16
7 6 5 3 3 4 7 10 12 14 15 15 15 16 16 16 17 16 14 13 15 16 16 15 15 14 13 13 13 14 15 15 15 15 15 15 15 16 16 16 16 17 17 17 16 16 16 16 17
6 5 5 4 5 7 9 12 13 15 16 16 15 15 16 16 17 16 15 14 14 16 16 15 15 15 14 14 15 15 17 16 15 16 16 16 16 17 17 17 18 18 18 18 18 17 16 16 17
6 4 4 4 7 9 11 12 15 15 15 16 15 15 16 17 17 16 16 16 16 17 17 16 17 18 17 16 16 16 17 17 17 17 17 17 18 18 18 18 18 17 17 18 18 17 17 17 17
6 3 3 4 7 10 12 14 14 15 16 16 16 15 15 16 16 16 17 18 17 17 17 16 17 18 18 17 17 17 18 18 18 19 19 19 19 20 18 18 18 19 18 17 18 18 18 18 19
6 4 4 5 7 9 12 13 14 15 16 16 16 15 15 16 16 17 17 17 18 18 17 17 17 17 18 18 18 18 18 18 19 20 20 20 20 20 19 18 18 19 19 18 19 19 19 19 19
4 3 4 6 9 11 12 13 14 15 16 17 16 15 15 16 16 17 16 18 18 18 18 18 18 18 19 19 19 18 18 18 19 20 20 21 20 20 20 19 19 20 19 19 20 19 18 19 19
2 4 5 6 9 11 13 14 15 17 18 16 16 16 16 17 17 17 19 18 18 18 19 19 19 19 19 19 19 18 19 19 19 20 21 20 19 19 19 21 21 21 20 20 20 18 18 18 20
3 3 5 6 9 11 14 15 17 18 18 17 17 18 19 20 20 20 18 18 18 18 18 18 18 19 19 20 20 20 20 20 21 20 20 20 20 20 20 21 22 21 21 21 20 19 19 19 20
3 4 6 8 10 12 14 16 18 19 19 18 18 19 20 21 22 22 21 19 18 18 18 17 17 18 19 20 19 20 21 21 21 20 20 21 20 20 21 22 22 22 21 21 21 20 21 21 22
3 6 8 10 11 13 14 16 19 20 19 18 18 19 20 21 22 22 21 20 19 19 19 19 18 18 19 20 21 21 22 21 21 21 21 21 21 21 22 22 22 22 22 21 21 21 22 22 21
5 7 9 10 11 13 15 16 19 18 18 18 19 20 20 20 20 20 20 21 22 21 20 20 20 20 20 21 21 22 22 22 21 21 21 22 22 22 23 23 23 22 21 21 21 22 22 22 22
7 8 10 11 11 14 15 16 17 18 18 19 20 21 21 22 22 22 21 21 22 21 20 20 20 21 21 21 22 22 22 23 22 22 22 22 22 23 23 23 23 23 23 22 22 22 22 22 22
9 9 10 11 13 15 17 17 17 18 19 19 20 21 22 23 23 24 24 24 23 21 20 21 21 21 22 23 23 21 21 22 22 22 23 23 22 23 22 22 23 23 23 22 22 21 21 22 22
10 11 12 12 14 16 18 18 18 19 19 19 20 22 23 23 23 24 24 23 22 22 21 20 19 19 19 20 20 20 20 20 20 21 21 22 22 22 22 22 22 23 22 22 22 21 22 21 23
11 12 14 15 15 17 17 17 16 18 19 20 20 21 23 24 23 24 24 23 23 22 21 21 19 19 19 19 19 18 18 18 18 19 19 21 21 21 21 21 21 22 22 21 21 22 22 21 22
12 12 14 14 15 16 16 17 17 18 19 19 20 21 22 23 23 23 23 22 21 21 21 20 19 17 17 17 17 16 16 16 17 18 19 19 20 20 20 21 21 21 21 22 21 22 22 22 21
12 13 12 13 14 15 15 16 17 18 19 19 19 21 21 21 21 21 22 22 21 19 17 16 15 16 16 16 16 16 16 16 17 18 18 19 20 20 20 20 19 19 20 21 21 21 22 22 21
12 13 12 12 12 12 14 16 17 19 20 20 21 22 20 20 20 21 21 20 20 19 16 15 15 15 15 15 15 15 15 16 17 18 19 20 20 19 19 19 18 18 19 20 20 19 20 21 21
12 12 12 11 11 12 14 16 18 19 20 19 20 20 19 19 20 20 20 21 20 18 16 15 15 15 14 14 14 14 15 16 17 18 19 19 19 19 18 18 18 17 18 18 18 18 18 20 20
12 11 11 11 12 12 14 15 17 19 19 20 20 19 19 20 20 20 20 20 19 18 17 15 15 15 14 14 14 14 16 17 17 18 18 18 19 19 18 18 19 19 18 18 18 17 18 19 20
11 11 11 12 12 13 13 15 18 19 19 19 19 18 18 18 19 18 18 18 18 18 17 16 16 16 14 14 14 15 16 17 18 18 18 18 18 17 17 17 17 17 17 17 17 17 18 19 19
11 11 12 12 12 14 14 16 18 19 19 19 19 18 18 18 19 19 18 18 17 17 18 17 17 16 15 15 15 16 17 17 17 17 17 16 17 16 16 16 15 16 16 17 18 18 18 19 20
12 11 11 12 12 13 15 16 17 17 18 19 18 17 18 19 19 18 18 17 17 17 18 17 17 17 16 16 16 16 17 17 17 16 16 16 16 15 15 15 15 15 16 16 17 18 18 19 20

GEFSSGP_500_meanwind_240.txt.gz
Wind_Speed
6 6 6 5 5 5 4 3 4 4 5 6 7 9 9 11 11 12 13 12 11 11 11 12 12 11 11 11 11 10 10 9 8 8 8 9 9 9 9 9 9 10 10 11 11 11 11 11 12
6 6 7 6 5 4 4 4 4 5 7 8 8 9 10 11 12 13 13 13 12 12 11 12 12 11 11 11 11 10 9 9 9 10 10 10 10 10 10 10 10 11 11 11 11 11 12 12 13
6 6 7 6 5 4 5 5 5 6 8 9 10 10 11 11 12 12 12 13 13 13 12 12 12 11 11 11 11 10 10 10 10 10 11 11 11 11 11 11 11 12 12 12 11 12 13 13 13
7 7 7 6 5 4 5 6 7 7 8 10 11 11 12 12 12 13 13 13 14 14 13 12 12 11 11 10 11 11 11 11 11 11 11 11 11 11 12 12 13 13 13 13 12 12 13 13 13
7 7 6 6 4 4 4 6 8 9 9 10 10 11 12 13 13 14 14 14 15 14 13 13 13 13 12 11 11 12 12 12 12 12 12 12 12 13 13 14 14 14 14 14 14 14 14 14 14
8 7 6 5 5 5 6 7 8 9 10 10 10 11 12 13 14 14 15 16 16 15 15 14 14 13 12 13 13 12 12 13 13 13 13 14 14 14 14 15 15 15 15 15 15 16 16 15 15
8 7 6 5 5 6 8 9 10 9 10 11 11 11 12 13 14 15 15 16 17 16 15 15 15 14 14 14 14 14 14 14 14 14 14 15 15 15 15 16 15 16 16 16 16 16 16 16 16
8 7 6 5 6 7 9 10 11 11 12 12 12 13 13 14 15 15 15 15 16 16 15 15 15 15 15 15 15 14 14 15 15 15 15 16 16 16 17 17 17 17 18 17 17 17 16 16 16
8 8 6 6 7 8 9 11 11 12 13 12 14 14 15 15 16 16 16 15 16 15 14 15 16 15 16 16 16 15 15 15 15 16 17 17 17 17 18 19 18 18 18 18 18 18 17 17 18
8 8 7 7 8 9 9 10 12 12 13 14 14 15 16 16 16 16 15 15 16 15 15 15 14 15 15 15 15 15 15 16 16 17 18 18 18 19 19 19 19 19 19 20 19 18 19 18 19
7 6 6 7 8 8 9 11 12 14 14 14 15 15 15 16 16 15 15 15 15 15 16 17 15 15 15 15 15 15 16 16 18 19 18 19 19 20 20 20 20 20 20 21 21 20 20 20 20
7 7 6 7 8 10 11 12 13 13 15 15 15 15 15 15 16 16 15 15 14 14 15 16 16 16 15 15 15 15 16 17 19 19 20 19 20 20 21 20 21 21 21 21 21 20 21 21 21
7 8 7 8 10 11 12 13 13 14 14 15 16 17 16 17 17 16 16 17 16 15 15 16 17 17 17 16 16 16 16 17 19 19 20 21 21 21 22 22 21 22 23 23 23 23 22 21 21
8 8 9 9 11 12 13 13 13 14 14 15 15 16 17 16 17 16 16 17 16 16 16 17 17 17 17 17 17 17 18 18 19 20 21 22 22 22 22 23 23 23 24 24 24 24 23 22 22
7 8 9 10 11 12 13 13 13 14 15 15 15 17 17 15 16 16 15 16 16 16 16 18 18 17 16 17 17 18 19 19 20 21 22 22 23 24 24 23 23 24 24 25 25 25 26 24 23
7 8 8 9 10 11 12 12 13 14 15 15 15 16 16 17 17 16 17 17 17 17 17 19 20 18 17 18 18 19 20 21 21 22 22 22 23 23 24 23 24 24 24 24 25 26 26 25 23
8 9 9 9 10 12 12 13 14 14 16 15 15 17 17 18 18 18 19 18 18 19 18 20 20 19 19 18 19 20 21 21 21 22 22 21 22 23 23 23 24 25 26 26 26 26 25 25 24
8 9 10 10 12 13 13 14 15 15 16 17 18 18 19 19 18 18 18 18 19 19 19 20 19 19 19 19 19 20 21 21 21 21 22 22 22 22 23 23 24 25 25 26 26 26 25 25 25
9 11 11 11 12 14 14 15 15 16 17 18 19 19 19 19 18 18 19 20 20 19 19 19 19 19 19 18 18 20 20 20 21 22 22 21 21 22 22 22 23 23 23 25 26 27 26 26 26
11 12 13 12 13 14 15 16 16 17 18 19 20 20 19 19 19 19 20 21 21 20 19 19 19 19 18 17 18 20 20 19 20 20 20 20 21 22 22 22 23 23 24 23 24 25 26 26 26
11 13 14 14 14 15 16 16 17 18 17 19 20 19 19 19 20 20 20 21 20 20 20 20 19 18 18 19 20 20 18 18 18 19 19 20 21 21 21 22 22 23 23 23 24 25 26 26 26
12 13 14 15 15 15 16 17 17 17 17 18 19 19 20 20 21 20 21 20 20 20 20 20 19 18 18 19 20 19 18 18 18 19 19 20 20 20 20 20 21 22 22 22 23 24 25 26 26
13 14 14 15 15 16 16 17 16 16 17 18 19 19 21 22 21 21 20 20 19 19 20 19 19 19 19 19 19 19 18 17 18 18 19 20 19 19 18 19 20 20 21 22 22 24 24 24 25
13 14 14 14 15 15 15 17 16 16 17 18 20 20 20 21 21 21 21 19 19 19 20 20 19 18 18 19 19 19 17 17 17 18 18 18 19 19 19 19 20 20 21 21 22 22 22 22 23
13 14 15 15 15 15 16 16 16 17 18 19 20 20 20 21 21 21 20 19 19 19 20 19 17 17 17 17 17 17 17 17 16 17 17 17 17 18 20 20 21 21 21 21 21 21 21 22 22
13 13 14 15 16 16 15 15 16 17 18 20 20 20 19 20 20 20 20 19 18 19 18 18 17 16 16 16 16 16 16 16 16 16 16 17 17 18 20 21 21 22 22 21 21 20 20 20 21
13 13 14 15 15 16 16 16 16 17 18 19 19 18 18 19 19 19 19 19 19 18 18 18 17 16 16 16 16 16 16 15 16 16 17 18 18 19 20 20 21 22 21 21 21 21 20 21 20
12 13 14 15 16 16 16 16 17 17 16 17 18 17 17 18 18 19 18 18 19 18 17 17 17 17 16 16 16 15 15 15 16 16 18 19 19 20 20 20 21 21 21 21 21 21 21 21 21
11 12 13 14 15 17 17 16 16 17 17 17 17 16 17 18 18 18 18 18 18 17 16 16 17 16 16 15 14 15 15 15 16 17 18 19 20 20 19 19 19 20 20 20 20 21 21 22 22
12 13 14 15 15 16 16 15 15 16 16 17 16 16 17 17 18 18 18 18 17 16 15 15 16 15 15 15 15 15 15 16 17 18 19 20 20 19 19 19 18 18 19 19 19 20 20 21 22